ECMWFFLT1_700_spd_000.txt.gz
Wind_Speed
24 24 26 27 28 28 26 26 25 24 24 24 23 22 20 19 20 21 21 20 20 18 15 12 10 10 9 7 7 8 9 10 11 12 14 16 18 21 23 26 28 30 30 30 31 31 31 29 26 22 20 19 18 17 15 14 12 12 11 11 11 11 12
25 23 25 26 26 26 26 27 28 27 26 26 25 24 22 21 21 21 20 20 21 21 18 15 13 13 12 11 11 11 12 13 14 14 15 16 18 20 23 26 29 30 30 30 31 32 32 30 26 22 20 19 19 18 16 14 13 12 11 11 11 12 12
24 24 26 25 23 23 24 27 28 28 28 27 27 25 23 21 20 20 19 18 19 22 22 20 17 15 15 15 14 15 15 16 17 17 17 18 19 21 23 27 29 29 29 29 30 32 31 29 25 21 20 18 18 17 16 15 14 13 13 12 12 13 14
22 21 23 23 22 22 23 25 25 26 27 26 25 25 23 22 22 21 20 19 19 21 22 21 19 18 18 18 17 18 19 19 20 21 21 20 21 22 24 27 28 28 28 28 29 31 30 27 24 21 19 18 17 15 14 14 14 15 15 15 14 14 15
20 20 22 25 25 24 24 26 26 26 26 25 25 25 25 25 26 26 25 23 22 21 21 21 20 20 20 21 21 21 22 23 24 24 24 23 23 23 24 27 28 27 27 27 28 30 28 25 23 21 20 19 17 16 15 15 15 15 15 16 15 15 16
16 18 20 21 22 23 24 26 27 27 24 22 22 22 24 26 28 28 27 27 26 24 22 22 22 22 22 22 22 23 25 26 27 27 26 26 25 24 25 27 29 27 25 26 27 28 27 25 22 20 19 19 18 18 17 16 15 15 15 16 16 16 17
14 15 15 14 15 18 22 24 26 26 22 21 22 23 26 27 28 28 28 28 28 27 26 25 25 24 24 24 24 25 26 28 29 29 29 28 27 25 25 28 29 26 24 25 27 27 26 23 20 19 19 19 18 18 17 16 16 17 18 18 18 18 18
14 16 14 11 13 15 17 19 21 21 21 23 25 26 27 27 28 28 28 28 29 30 29 29 28 26 25 26 27 26 27 28 30 30 31 30 28 26 26 28 29 26 24 26 27 27 25 23 19 17 17 18 18 18 18 18 19 19 19 18 17 17 18
18 17 15 13 14 14 15 17 17 17 21 24 25 26 27 27 28 28 28 29 30 32 31 31 30 27 27 29 30 28 27 28 29 31 32 31 28 26 27 29 28 25 24 26 28 27 24 21 18 16 16 16 17 17 18 19 19 19 18 17 16 16 16
20 18 16 15 13 12 14 18 19 20 23 25 25 27 27 26 27 27 27 28 30 31 30 30 31 30 30 31 31 30 29 29 30 31 32 31 28 26 26 29 27 24 24 27 28 26 23 20 17 16 16 16 17 17 18 17 17 18 18 17 16 16 16
20 19 18 15 13 13 13 16 18 19 22 23 24 25 24 24 24 24 25 26 28 29 30 30 31 32 33 33 33 31 32 32 30 30 31 31 28 25 26 28 26 23 24 27 27 24 21 18 16 16 16 17 18 18 18 17 17 18 18 17 17 17 18
18 20 19 13 13 14 14 13 12 13 16 19 22 23 24 24 23 23 24 24 26 28 29 30 31 31 33 34 33 32 34 35 31 27 29 29 27 25 25 26 25 23 25 27 25 22 19 17 16 16 18 19 19 18 17 17 17 17 17 16 17 18 18
17 19 18 12 10 13 16 17 15 13 14 16 19 21 23 24 25 26 25 24 25 25 27 28 28 30 32 33 33 32 35 37 31 25 26 27 26 24 23 24 24 23 25 26 24 20 17 16 16 17 19 19 18 17 17 18 18 18 16 16 17 17 18
18 18 16 12 11 12 14 15 16 15 16 18 19 20 21 23 24 26 27 27 26 25 25 26 27 29 30 32 33 33 36 38 29 22 23 23 22 22 21 22 22 23 25 24 21 17 14 14 15 17 18 18 17 18 18 19 19 17 16 17 17 17 18
19 19 17 14 13 13 13 13 14 16 18 21 22 22 22 22 22 24 25 27 28 28 28 28 28 30 30 30 32 34 38 38 26 19 21 21 20 21 20 20 22 23 23 22 18 15 13 13 15 17 17 16 17 18 19 18 16 16 16 17 18 19 19
19 19 18 16 14 14 14 15 16 17 19 22 25 25 24 22 22 22 22 24 26 29 30 30 29 30 29 28 30 33 38 37 25 18 20 20 19 19 18 19 21 20 20 18 15 13 12 13 16 17 15 15 17 18 18 16 14 14 16 18 19 20 20
22 21 17 15 14 14 15 15 17 19 21 23 25 27 26 25 23 22 21 21 23 25 28 29 29 29 28 28 31 34 39 37 25 18 20 20 18 17 18 19 18 17 17 15 13 11 11 12 15 16 15 17 19 20 19 16 15 15 16 19 21 23 23
25 21 15 13 13 14 14 15 18 21 22 23 24 26 27 26 26 24 22 21 21 22 25 26 27 28 29 32 35 38 40 35 23 18 20 19 16 17 18 17 15 15 16 14 12 11 10 12 14 16 17 20 22 22 21 20 18 17 18 20 23 24 24
24 19 14 13 12 12 14 16 19 22 23 22 23 25 26 26 27 26 24 23 22 22 24 26 28 29 30 32 35 39 40 31 19 17 18 16 15 16 16 14 14 15 15 14 13 11 11 12 14 16 18 20 22 22 22 21 21 22 22 22 24 25 25
22 16 12 12 12 14 15 15 17 19 19 19 21 24 25 25 25 26 26 26 25 23 24 27 30 31 31 32 35 40 40 28 18 17 16 11 12 14 13 12 13 14 15 15 15 15 14 15 16 18 19 20 21 21 22 22 24 26 26 24 25 25 25
21 16 13 14 16 17 16 16 16 15 13 13 16 21 24 24 23 24 27 28 27 26 28 30 32 34 36 37 41 43 39 27 21 17 11 8 10 11 11 11 12 14 15 16 16 16 17 18 21 22 23 24 21 18 20 24 26 29 29 27 27 26 26
20 18 16 18 19 18 16 17 16 14 13 12 12 16 20 22 22 23 27 31 33 34 36 38 39 41 43 45 46 41 33 27 23 15 7 6 7 8 9 11 13 15 16 17 18 20 20 20 21 23 26 27 23 20 23 26 28 30 30 28 28 29 28
18 18 19 19 19 16 14 15 16 16 16 15 15 16 17 19 21 23 28 34 38 38 39 40 41 41 44 47 44 36 28 25 22 13 5 5 6 8 10 12 15 17 19 20 21 21 20 19 21 25 29 29 27 27 28 28 30 31 29 27 29 30 30
17 19 19 18 16 15 14 14 15 17 19 21 22 21 19 19 21 25 30 34 36 38 38 40 39 37 38 40 38 34 30 24 19 11 5 4 8 11 12 16 19 20 21 22 21 20 21 23 27 29 30 30 32 31 28 29 32 32 29 28 30 31 31
16 19 19 16 16 16 17 18 17 19 22 23 23 22 22 21 22 26 31 34 37 41 40 39 36 32 32 32 31 33 29 19 16 12 6 5 10 12 14 17 20 20 21 23 23 23 25 29 31 31 29 31 33 30 27 31 34 32 30 31 32 32 30
18 19 16 14 14 16 19 22 23 24 24 22 20 20 20 19 19 22 26 31 36 40 41 38 31 27 28 28 29 29 21 13 14 13 9 7 11 12 14 17 19 19 22 24 25 26 28 31 32 33 32 32 32 30 30 33 33 32 32 34 33 32 30
20 17 14 13 16 18 21 24 25 26 25 22 20 20 19 18 17 18 20 25 29 32 36 37 31 27 28 27 27 26 17 11 11 12 9 9 12 13 14 17 18 21 24 26 27 28 30 33 35 35 33 32 33 33 32 32 33 34 34 34 32 31 30
20 18 16 15 17 19 21 22 23 24 23 23 23 24 23 21 20 20 23 25 26 25 27 30 30 30 28 25 23 22 15 10 10 11 10 11 12 12 14 17 20 24 27 28 29 31 33 35 35 35 33 33 34 33 31 32 34 34 34 32 31 30 30
18 18 17 16 19 22 22 21 22 23 24 25 26 27 27 26 26 28 27 26 23 19 20 26 30 30 28 27 25 19 13 9 10 12 12 12 13 14 17 20 23 27 28 29 31 34 35 34 34 34 35 34 32 30 30 32 33 32 31 31 30 31 31
18 18 20 23 26 27 26 24 23 23 25 26 27 28 29 30 33 35 33 28 22 17 20 25 28 27 28 29 25 18 13 11 12 14 14 12 13 16 20 23 26 27 28 31 34 35 34 34 35 35 34 31 30 30 31 31 30 29 29 30 30 30 30
20 24 27 30 30 29 27 25 23 23 24 26 27 29 32 33 32 30 26 20 16 17 21 25 25 24 26 26 21 17 17 16 16 17 15 12 13 17 20 24 27 28 31 33 35 34 34 35 34 33 30 29 29 30 30 29 28 28 29 29 29 28 28
26 29 30 31 30 28 24 20 20 22 25 27 29 30 32 32 27 21 16 14 14 16 19 22 22 22 24 24 22 23 24 23 22 21 17 13 16 19 23 27 29 31 33 33 33 32 32 32 31 30 29 28 28 28 28 27 27 28 29 29 27 26 27
28 29 29 29 29 27 23 20 21 24 26 27 27 27 28 28 27 23 19 15 14 15 17 20 22 23 24 25 27 29 28 25 24 24 21 19 21 24 28 31 31 31 31 30 30 29 28 28 29 29 28 28 27 27 27 27 27 28 28 27 25 24 25
28 28 29 29 28 26 25 24 23 23 23 24 24 24 24 25 24 23 19 17 16 16 20 23 25 27 30 31 31 30 29 28 28 26 22 21 24 27 29 31 30 30 29 28 27 27 26 27 28 28 27 27 27 27 27 28 27 27 25 24 23 23 22
27 28 28 28 27 26 25 24 22 21 22 23 23 23 24 23 24 24 24 25 25 22 26 33 33 33 36 34 31 29 30 30 25 20 20 24 27 28 29 29 28 27 25 25 25 25 26 27 27 26 26 27 27 28 29 29 27 25 23 22 21 21 20
26 26 26 25 25 25 25 23 22 21 22 22 22 23 24 24 25 27 29 31 31 32 34 36 30 26 28 28 26 26 24 20 16 17 22 25 26 26 26 25 25 23 21 22 24 25 26 27 27 27 28 29 29 30 30 29 26 23 22 21 20 20 19
26 25 25 24 24 23 23 23 23 22 21 21 22 22 23 24 24 25 28 29 27 31 34 28 14 12 15 16 17 18 14 12 14 16 20 22 22 22 22 22 21 21 21 23 25 26 26 27 27 28 28 29 30 29 28 27 24 22 21 21 21 19 18
24 23 24 25 25 24 23 22 22 20 18 18 18 18 20 22 22 23 26 24 21 20 22 20 16 17 14 12 14 14 12 11 13 15 17 18 18 18 19 19 19 20 22 25 26 26 27 28 27 27 28 28 28 27 26 25 23 21 21 22 21 19 17

ECMWFFLT1_700_spd_003.txt.gz
Wind_Speed
18 19 21 25 28 29 28 26 24 22 20 20 19 18 16 15 15 15 16 18 18 18 18 18 17 16 14 12 10 10 10 8 7 6 6 7 8 10 12 13 15 17 19 20 21 21 22 23 23 21 19 17 16 14 14 13 12 11 11 11 11 11 11
19 18 19 22 25 27 27 27 26 25 23 21 19 18 17 16 16 15 14 16 18 19 19 19 19 19 17 15 14 13 12 12 10 9 10 10 11 13 14 15 16 17 19 20 21 21 22 23 24 23 21 19 17 15 14 13 12 12 11 11 11 11 12
21 19 19 20 22 23 23 24 25 25 25 23 22 21 19 17 16 15 14 14 16 18 19 20 21 21 21 19 17 16 16 15 14 13 13 15 15 15 17 18 18 18 20 21 22 22 22 23 25 25 23 21 18 15 13 12 12 11 11 11 12 12 13
21 19 19 19 20 21 21 21 21 22 22 21 21 19 17 16 16 16 17 16 16 18 18 19 20 21 23 24 21 19 19 18 17 17 17 18 18 18 19 19 20 20 20 21 22 22 23 24 25 26 25 21 18 15 13 13 11 11 11 11 12 13 14
19 19 19 20 20 21 21 20 20 20 19 18 18 18 17 17 18 20 21 21 21 21 20 20 20 20 23 25 23 22 23 21 20 21 21 21 21 20 20 20 20 20 21 22 22 22 22 24 25 26 25 21 18 16 14 13 12 11 11 11 12 13 14
19 19 19 19 19 18 18 19 19 18 18 18 17 16 16 17 19 20 21 22 24 25 24 24 24 23 22 22 21 22 25 25 24 24 24 23 22 21 20 20 20 20 22 23 22 22 22 24 25 25 24 21 18 16 14 13 12 11 11 11 12 12 14
19 18 16 16 15 13 14 16 17 18 18 18 17 16 16 18 19 18 19 22 24 26 28 27 28 27 24 24 22 20 22 26 28 27 26 25 24 22 20 19 19 20 22 23 23 22 22 24 25 24 22 20 18 15 14 13 12 11 11 11 11 12 13
16 15 15 16 14 11 12 16 17 17 18 19 19 19 19 21 22 21 22 22 23 26 28 28 29 30 29 28 27 24 23 25 28 29 28 27 25 23 21 20 20 20 21 23 23 22 22 23 24 23 21 19 17 15 14 14 13 11 11 11 11 12 13
16 15 16 16 13 10 12 14 15 16 17 18 19 19 20 22 21 21 22 22 23 25 27 28 30 32 32 31 30 28 26 25 27 29 29 29 27 25 22 22 21 20 20 21 23 21 21 23 22 21 19 18 17 16 14 14 13 12 12 12 13 13 13
17 16 19 19 14 10 11 12 13 15 15 15 15 15 16 17 17 18 20 22 23 24 25 28 31 33 34 33 32 31 29 27 28 29 31 33 31 26 23 22 21 20 19 20 21 21 21 22 21 20 18 17 18 16 15 15 13 13 14 14 14 14 15
18 18 22 22 17 13 14 14 13 14 13 12 11 11 12 12 14 16 18 20 21 21 22 26 30 33 34 34 34 33 31 29 30 31 33 35 34 27 23 22 21 19 19 20 20 21 22 22 20 18 16 17 18 17 15 15 14 14 15 15 16 17 18
19 20 25 25 20 16 15 14 13 13 12 11 11 10 10 11 14 15 16 18 20 20 22 24 27 30 32 33 34 33 32 32 32 33 33 34 34 30 24 22 21 20 20 20 20 21 22 21 19 17 15 16 17 17 16 15 15 15 16 17 18 19 20
18 21 26 26 23 19 17 16 15 14 13 13 14 13 12 13 14 14 15 18 20 22 24 26 26 28 30 32 34 34 34 34 34 33 33 33 34 31 26 22 21 21 20 19 19 21 21 20 18 15 14 15 17 17 16 16 15 16 17 17 18 19 19
20 21 26 28 25 21 18 18 17 16 15 14 15 16 18 19 18 17 17 18 20 22 24 26 28 29 30 31 34 35 35 35 35 33 33 34 33 29 26 23 22 21 19 18 19 20 20 19 16 14 13 15 17 17 16 15 16 16 17 17 18 18 17
23 23 25 27 26 22 19 19 19 19 19 17 17 18 20 22 21 22 21 21 21 20 20 23 25 27 30 32 34 34 34 35 35 34 34 34 33 29 25 23 22 20 18 17 18 18 18 17 15 13 13 15 18 18 16 15 16 16 16 17 18 18 17
26 25 23 24 25 22 18 17 19 20 21 20 20 20 20 21 21 22 22 20 20 20 19 20 23 25 28 33 35 35 36 37 37 37 36 35 33 29 25 22 21 19 17 16 16 16 17 16 14 12 13 16 18 17 16 16 15 15 16 17 18 19 19
29 26 23 24 26 22 17 17 18 19 20 20 20 21 21 22 22 23 23 21 19 18 19 21 23 24 27 31 37 39 38 39 41 41 38 35 34 31 25 22 21 18 16 15 15 15 15 14 13 13 14 16 17 16 16 17 16 15 17 19 19 20 22
29 26 23 25 26 21 16 17 18 17 17 18 19 21 23 23 24 25 26 25 21 19 21 23 25 27 28 31 36 40 42 44 45 44 42 39 35 29 25 23 21 18 15 14 13 13 13 13 13 13 14 16 16 17 19 21 20 19 20 22 22 23 25
28 25 22 24 23 19 17 18 17 15 15 16 17 19 21 23 25 25 26 26 26 25 26 27 28 29 31 33 36 42 50 53 48 44 44 40 31 26 25 24 20 16 14 13 12 11 12 12 12 14 15 16 16 18 20 21 21 21 23 26 27 27 28
28 25 23 23 21 20 19 17 16 15 15 15 17 18 19 21 22 23 23 25 27 29 29 30 32 34 37 38 39 44 51 53 49 44 43 38 29 26 27 24 18 16 14 12 11 10 10 10 11 13 15 15 15 17 19 18 18 21 25 28 29 30 29
28 25 24 24 21 20 19 17 17 16 14 13 14 15 16 17 18 21 23 23 27 30 30 32 35 38 41 43 44 47 49 50 50 48 45 40 32 29 27 23 19 16 13 11 9 8 9 10 11 12 13 14 15 17 17 17 18 22 25 28 30 31 29
27 25 25 23 19 18 17 16 17 16 15 15 13 11 12 13 14 18 21 22 26 30 32 35 38 41 44 46 49 52 53 53 53 49 47 44 35 32 27 22 18 15 12 10 9 9 9 10 10 11 13 15 17 18 17 17 20 23 24 27 30 31 29
25 23 22 20 18 17 16 16 15 16 18 18 15 14 15 15 14 15 18 19 23 26 30 35 38 40 44 46 48 56 59 59 55 48 47 46 36 32 27 22 17 13 11 9 9 9 8 9 10 13 16 18 20 21 18 18 21 23 25 27 30 30 28
19 19 18 19 19 18 18 17 16 18 19 18 17 18 20 19 17 17 18 19 22 25 29 33 36 38 42 44 50 58 60 59 54 48 48 44 32 28 25 21 16 12 11 9 9 9 9 12 14 16 18 20 22 24 23 22 24 25 27 28 29 29 27
14 15 17 18 19 19 20 19 18 18 19 18 18 19 20 20 18 18 18 19 22 24 27 30 31 33 37 43 51 57 56 53 50 47 46 39 27 25 23 19 17 15 13 10 10 11 11 15 17 18 21 21 22 24 25 25 25 27 28 28 28 28 29
17 17 17 17 16 17 18 18 17 17 18 18 19 21 21 21 20 19 17 18 20 22 25 27 28 29 33 39 45 51 52 49 44 41 37 26 20 21 19 19 23 22 16 12 13 13 15 19 20 22 25 26 24 24 25 27 27 29 28 27 27 28 30
22 20 18 17 16 15 16 16 15 16 18 19 21 22 21 22 22 20 19 19 22 25 28 29 29 30 32 37 43 47 45 40 37 32 24 17 16 16 14 16 21 20 14 12 15 17 18 21 24 25 28 30 28 26 28 29 29 29 28 27 27 30 32
22 22 21 21 20 19 17 16 16 16 17 19 21 21 20 21 22 21 21 22 25 29 31 32 32 31 33 38 43 42 36 30 26 20 16 17 16 13 12 13 15 15 13 15 19 21 20 22 26 28 30 31 30 29 31 31 30 29 28 27 29 31 33
21 21 21 22 22 20 18 16 17 18 19 21 22 20 18 19 21 22 23 25 28 31 32 33 33 34 35 36 37 36 32 24 14 14 16 18 16 14 14 15 15 16 17 19 22 22 20 22 26 30 32 32 32 32 33 32 30 29 29 29 31 32 34
21 21 20 19 18 19 19 19 21 23 24 25 24 19 17 19 21 22 25 28 30 31 32 32 33 34 34 32 32 32 28 16 17 22 19 18 18 18 18 15 13 12 13 16 19 21 22 23 26 30 33 34 34 34 33 32 30 29 30 31 31 32 32
16 19 19 19 19 19 20 20 21 23 25 25 22 17 16 19 22 24 27 30 30 29 30 30 30 31 31 29 27 26 20 13 20 24 22 21 22 21 16 10 7 8 10 15 20 22 24 25 28 31 34 34 34 33 32 31 30 30 31 31 30 30 31
14 15 17 19 20 22 22 21 21 24 25 24 21 18 20 22 24 25 27 28 26 25 26 26 27 28 27 26 24 21 18 17 19 24 27 26 25 21 14 9 8 11 15 19 21 23 25 27 30 33 34 33 32 31 30 30 30 31 30 29 29 31 32
16 15 16 17 19 22 24 25 27 30 29 25 22 22 23 25 25 26 26 25 24 24 25 25 27 27 25 26 27 25 22 22 22 27 30 29 26 22 17 12 13 18 21 22 23 23 26 29 31 32 32 31 30 30 29 29 29 30 30 31 32 33 34
21 18 17 16 17 19 22 25 28 30 29 26 24 23 22 23 25 25 25 25 23 22 23 25 27 27 25 26 28 29 29 30 32 34 34 31 26 22 18 15 17 21 22 22 22 23 26 29 30 30 29 29 28 28 28 29 30 31 32 33 34 34 33
25 24 23 22 21 21 24 28 28 27 26 25 24 22 21 22 23 23 23 21 19 19 21 23 24 24 25 27 31 35 38 40 39 36 32 28 23 20 18 17 19 18 17 20 22 24 27 28 28 28 28 28 28 29 29 30 31 32 33 33 33 32 31
30 29 28 28 27 26 28 30 28 26 25 24 23 22 21 21 20 19 17 16 15 16 18 19 20 21 21 23 27 32 34 33 29 24 21 21 21 21 20 18 16 13 15 18 21 23 25 26 27 28 28 29 30 30 31 31 31 32 32 32 31 30 29
36 32 28 28 28 27 27 27 26 25 24 23 22 20 18 16 15 13 13 13 13 15 16 17 19 19 16 15 19 23 24 23 20 16 14 16 18 17 15 13 12 12 14 17 19 21 23 25 27 28 29 30 31 32 32 31 31 31 31 30 30 29 29
29 27 25 25 25 24 24 25 24 23 20 18 17 15 11 10 10 11 13 14 14 15 15 16 17 16 13 11 13 16 16 14 11 7 5 7 11 12 12 12 12 13 14 16 18 20 23 25 27 28 30 31 31 31 31 31 31 31 30 29 29 29 28

ECMWFFLT1_700_spd_006.txt.gz
Wind_Speed
22 20 20 21 22 25 27 28 27 23 22 21 19 19 19 19 18 17 17 18 19 20 20 18 17 18 17 16 16 14 12 12 11 10 8 7 7 8 8 9 10 11 12 12 13 15 17 18 18 18 20 22 22 20 18 16 15 14 13 13 12 12 11
23 21 20 20 22 23 25 27 29 28 25 22 20 19 20 19 18 17 15 15 16 18 20 20 20 19 19 20 19 18 16 15 14 14 12 11 11 12 12 12 13 13 14 14 14 14 16 17 18 18 20 22 22 21 18 16 15 14 14 13 13 13 13
22 20 20 21 21 21 22 24 28 29 28 25 23 21 19 19 18 16 14 13 14 16 19 21 21 21 21 22 22 21 20 19 18 17 16 14 15 15 15 15 15 15 16 15 15 15 16 17 18 19 19 21 22 21 18 16 15 14 13 13 13 14 14
22 21 22 21 20 19 19 22 25 27 28 26 24 22 20 18 17 16 15 14 14 15 16 17 19 21 23 23 23 24 23 22 22 20 19 19 19 19 19 18 17 17 17 17 16 16 16 17 18 19 19 20 21 20 18 16 15 14 13 12 13 14 14
23 23 23 21 20 20 21 22 22 24 26 26 25 24 22 20 19 19 17 16 17 18 19 19 21 23 25 25 25 26 25 24 25 25 23 23 23 23 22 20 19 19 18 18 17 16 16 17 18 18 18 19 20 20 17 15 14 13 13 13 13 14 14
24 24 22 19 19 19 21 22 21 20 21 22 22 21 20 20 20 19 18 18 19 21 22 23 23 25 26 26 26 27 27 26 27 28 27 27 27 27 25 23 22 20 19 19 19 18 18 17 17 18 18 18 20 19 16 14 14 13 13 13 14 14 14
23 21 17 14 14 14 17 20 20 19 19 19 19 20 20 20 19 18 18 19 20 22 24 24 25 26 27 28 28 29 29 27 27 29 27 26 28 30 29 27 23 22 22 22 21 20 20 18 17 17 17 18 20 18 16 14 13 13 13 13 14 14 14
21 17 14 12 11 11 13 17 19 19 19 20 20 22 22 21 20 20 20 20 19 20 22 22 24 25 27 29 31 32 32 31 29 30 29 26 26 29 31 29 26 25 25 25 23 21 20 19 17 16 17 19 20 19 16 15 13 12 13 13 13 13 14
19 15 14 12 11 10 10 14 17 18 19 21 22 22 22 22 22 22 21 20 20 21 21 21 22 25 27 31 33 35 36 36 34 34 34 32 29 27 30 31 29 29 28 24 24 22 20 19 18 16 17 19 20 19 16 14 12 11 12 12 12 13 14
17 15 16 14 12 11 11 14 17 19 21 22 23 23 23 23 23 22 21 21 22 22 21 22 23 26 28 31 34 36 39 40 39 38 38 38 35 29 28 30 32 33 29 24 22 20 20 21 19 17 18 19 19 18 16 13 11 11 11 10 11 12 14
16 16 16 14 12 11 13 15 18 21 22 22 24 23 23 22 21 21 21 21 22 21 21 22 25 26 28 31 34 37 40 43 43 43 42 40 40 36 29 29 34 35 31 25 22 20 21 22 20 18 18 19 18 16 15 12 10 10 10 10 11 12 13
17 18 17 15 13 11 12 15 17 20 21 20 21 21 20 19 18 18 19 20 20 20 20 23 25 27 28 30 34 37 40 43 45 47 46 43 44 40 31 30 35 37 33 26 21 21 23 23 21 19 18 18 17 16 14 12 11 10 10 10 10 11 12
20 20 18 16 14 12 13 15 17 20 20 19 19 18 16 15 15 16 17 17 17 18 20 22 24 26 29 30 33 36 39 43 47 49 48 46 45 41 34 31 36 39 35 27 22 23 24 23 21 19 18 17 16 16 14 13 11 11 11 11 11 11 12
23 22 20 18 18 17 16 16 17 19 19 18 19 17 15 13 13 14 14 15 17 18 19 20 21 24 27 29 33 36 37 41 48 51 50 48 48 45 39 35 36 40 38 29 24 24 25 24 22 19 18 17 16 16 15 14 12 13 13 13 12 13 14
26 24 22 20 22 22 19 17 17 19 18 17 17 17 14 13 13 14 15 17 19 20 21 23 23 25 27 29 30 31 33 42 52 53 50 50 50 47 44 41 39 40 37 29 24 25 26 24 21 19 18 16 16 16 16 14 13 14 14 14 14 15 15
29 27 25 24 25 24 20 18 19 19 19 17 16 16 14 13 14 16 18 20 21 23 26 27 29 30 31 31 31 30 34 46 56 53 48 52 55 50 47 46 42 38 34 28 24 25 25 23 21 18 17 16 16 16 16 15 13 14 14 15 16 17 17
29 28 29 28 27 26 22 20 21 21 20 19 18 17 17 17 18 19 21 23 24 25 27 28 30 32 33 33 33 33 36 44 49 47 44 50 57 55 50 47 42 40 35 29 26 26 24 21 19 17 16 16 16 17 16 15 13 13 14 16 17 18 19
28 30 32 29 27 28 27 25 22 20 19 19 18 19 21 21 23 24 25 26 26 27 28 29 29 30 33 35 34 36 39 42 43 43 44 51 56 55 52 48 44 43 39 32 27 25 23 20 17 16 16 16 17 17 16 14 13 14 15 16 17 19 20
28 31 33 29 25 25 27 28 24 20 19 19 20 22 22 22 24 26 27 28 29 30 31 32 31 30 32 35 36 38 39 40 41 43 48 56 57 53 51 48 48 48 39 31 30 27 22 19 16 15 17 17 17 17 16 15 14 15 16 16 17 19 21
31 34 33 28 25 24 25 29 28 23 22 23 24 24 23 23 24 24 25 27 29 31 32 33 33 33 33 34 35 36 38 39 42 47 53 59 56 51 50 48 49 49 38 29 32 29 21 18 16 16 18 17 17 17 16 16 16 16 17 17 17 20 22
33 36 32 27 26 25 26 29 29 27 26 26 25 24 22 22 22 21 22 23 24 27 29 31 33 34 35 34 32 34 36 39 44 49 54 56 53 49 50 47 49 51 40 31 32 28 21 18 16 16 18 19 17 17 16 17 18 18 18 18 19 22 24
34 34 29 26 27 27 28 29 30 29 28 25 23 22 20 19 18 17 18 18 18 20 23 27 31 33 33 32 32 33 34 36 40 43 45 49 51 49 48 48 51 53 44 34 33 31 24 20 18 17 19 19 18 17 15 15 17 20 20 20 23 26 28
32 29 26 26 28 28 29 30 30 28 25 23 22 21 18 17 17 17 17 17 17 17 18 22 27 30 30 29 29 29 29 31 35 36 37 42 47 48 49 51 52 49 39 33 35 34 26 20 18 17 18 18 17 17 15 15 17 21 22 22 25 28 30
29 28 27 29 29 29 28 27 25 24 23 22 21 19 16 16 17 17 18 19 19 19 19 20 23 26 26 26 25 26 28 30 33 36 37 39 43 48 52 53 48 36 27 30 35 32 25 22 21 19 17 17 16 17 16 16 17 20 22 24 27 29 31
31 29 29 28 28 27 25 23 23 22 21 19 16 14 15 17 18 19 19 20 21 21 21 22 23 24 24 25 25 27 30 32 34 38 39 39 45 52 51 44 32 20 20 30 32 28 25 24 23 20 17 15 17 17 18 18 19 22 25 27 29 31 32
30 28 27 26 25 25 23 21 21 19 17 14 13 16 18 20 21 22 22 23 23 23 23 23 23 23 23 25 27 29 31 32 33 35 35 38 42 44 36 26 18 15 20 28 28 27 27 25 22 19 16 16 20 20 19 20 22 24 27 30 32 33 31
25 25 25 24 24 24 22 21 20 18 16 16 17 19 20 21 22 22 23 24 24 24 24 23 24 24 24 26 28 29 29 28 26 24 23 27 31 30 22 18 19 16 22 28 28 29 27 23 22 21 18 21 23 23 24 26 25 25 29 33 34 32 29
27 26 26 25 24 23 22 21 20 19 19 20 21 20 20 21 22 22 23 23 23 23 23 25 26 27 27 29 28 27 26 23 20 17 16 17 21 24 23 23 20 18 23 27 28 28 26 24 22 21 21 23 24 25 26 28 26 27 31 34 33 30 28
29 27 26 24 23 22 22 21 20 21 21 21 22 21 20 20 20 21 22 21 22 23 25 27 29 29 29 29 26 23 23 21 17 16 17 16 18 23 24 21 18 19 24 27 29 29 26 22 18 17 18 20 22 23 23 25 28 30 33 33 30 28 27
29 27 25 24 23 22 23 22 22 22 22 21 20 19 18 18 18 19 20 20 21 24 27 29 30 30 29 26 23 20 20 19 17 16 18 17 17 20 20 18 18 19 22 27 30 28 21 15 15 16 18 19 22 23 23 26 30 32 32 30 28 27 28
25 24 24 24 24 24 25 25 24 23 21 19 17 16 15 17 18 18 19 20 23 26 28 29 29 28 25 23 21 18 17 18 18 18 17 15 15 18 19 19 19 20 24 28 28 23 17 14 16 19 21 21 22 24 26 28 31 31 31 29 28 28 29
22 23 24 27 28 29 30 30 28 26 24 20 17 15 14 14 15 16 19 23 25 26 27 26 24 23 22 21 19 15 14 16 18 18 16 13 16 20 22 23 23 25 25 23 19 16 15 15 18 20 20 20 21 25 29 30 31 31 30 28 28 28 29
19 21 23 25 26 27 29 29 28 28 26 23 19 16 15 15 16 20 23 24 25 24 23 21 20 19 19 17 14 12 13 15 17 17 15 14 18 23 26 28 29 28 27 22 17 14 17 19 18 17 17 20 23 27 30 31 31 30 29 28 28 29 30
16 18 20 22 23 24 25 27 28 29 28 24 22 21 21 22 24 26 24 22 22 22 21 20 19 18 16 13 11 10 10 10 11 11 12 14 18 24 29 33 34 32 29 24 18 19 21 17 14 14 17 21 26 29 31 31 30 30 29 29 30 31 32
21 23 25 26 28 29 30 31 32 32 28 26 26 28 29 29 28 24 20 20 22 22 21 21 19 15 12 9 8 8 7 6 5 5 7 9 11 16 25 32 32 27 25 23 22 21 18 14 13 15 20 24 28 29 30 30 30 30 30 31 32 33 32
29 30 31 32 33 34 35 37 38 38 36 35 34 32 29 25 20 16 17 20 21 20 19 17 14 10 8 8 8 7 7 6 4 5 6 7 6 6 13 19 21 21 22 22 21 20 18 15 14 17 22 25 27 28 30 31 31 32 32 32 33 33 32
33 35 35 35 34 32 32 32 34 34 33 32 31 26 20 15 13 14 17 19 18 15 13 10 8 7 8 9 9 9 9 8 7 7 7 5 3 4 8 13 17 19 20 19 18 18 18 16 16 19 23 25 26 28 30 32 32 33 32 32 32 32 32
28 29 30 30 27 25 25 26 27 27 26 25 23 20 14 12 14 17 18 16 13 10 8 6 6 8 9 9 10 10 9 8 8 7 6 3 1 4 8 11 14 15 16 16 17 18 18 17 18 21 23 25 26 28 30 32 32 32 30 30 31 31 30

ECMWFFLT1_700_spd_009.txt.gz
Wind_Speed
18 22 27 29 29 29 28 27 27 26 25 25 24 23 25 27 29 28 27 25 23 22 22 21 20 19 18 18 17 16 16 16 15 14 13 11 10 9 9 9 9 8 7 8 9 10 10 11 11 12 12 13 13 14 15 16 15 13 12 11 10 10 9
17 19 24 26 27 29 29 28 28 29 28 27 25 24 24 25 26 27 26 25 24 24 24 24 23 21 20 19 20 19 19 18 17 17 16 15 13 12 12 12 12 12 11 11 12 12 13 13 13 13 13 14 14 14 15 16 16 14 13 12 11 11 10
18 19 21 22 23 24 26 27 28 30 30 29 27 26 24 23 23 23 23 22 22 24 26 26 26 24 23 22 22 21 21 21 20 20 19 18 17 16 15 15 16 16 15 15 15 14 14 14 14 14 14 14 14 15 16 16 16 15 13 11 11 11 11
20 20 19 19 19 20 22 24 26 28 30 30 29 27 23 21 20 20 21 22 21 22 24 25 25 26 26 25 24 24 24 24 23 23 21 21 21 20 19 19 18 18 18 17 18 17 16 16 16 16 15 15 15 15 16 17 17 15 13 12 11 11 11
20 21 20 18 19 20 22 23 26 27 28 29 30 28 25 22 20 20 22 22 22 21 21 22 23 25 26 27 27 27 27 27 26 25 24 24 24 24 24 23 21 21 20 20 20 19 19 19 18 17 17 16 17 16 16 17 17 16 14 12 11 10 10
20 22 20 19 21 23 24 25 26 26 26 27 28 27 27 25 24 23 22 22 22 21 21 22 23 23 24 26 27 29 30 29 29 28 28 27 27 27 27 26 24 24 23 22 22 22 22 22 20 19 19 18 18 17 17 17 17 17 15 13 12 10 10
20 21 20 20 23 23 22 23 25 25 24 24 26 26 27 27 26 25 23 23 23 23 23 24 23 23 24 25 26 28 30 31 31 31 31 30 30 29 29 29 27 25 24 24 23 22 23 22 22 22 21 19 19 19 18 17 17 17 16 14 12 11 9
18 18 19 21 22 20 18 19 23 25 23 23 25 26 28 28 27 26 26 25 25 26 26 26 26 25 24 24 26 28 30 32 34 34 33 33 33 32 32 33 31 28 25 25 24 24 24 24 24 23 20 19 20 20 19 18 18 17 16 14 12 11 10
16 16 20 21 20 18 15 15 20 24 24 24 25 26 27 28 27 27 26 26 26 28 27 26 26 25 24 25 26 27 29 32 35 37 37 36 36 35 35 35 35 32 28 26 26 27 28 27 25 23 20 20 21 21 21 20 19 17 16 15 13 11 10
15 17 22 22 20 18 15 13 18 23 25 27 27 27 28 28 28 28 28 28 28 28 27 26 26 26 26 26 26 28 30 33 37 41 41 40 39 39 37 37 37 35 31 29 29 29 28 29 27 24 22 21 22 22 22 21 20 18 17 16 14 12 11
16 19 24 23 20 18 14 11 12 18 24 28 29 28 28 28 28 29 30 29 29 29 27 27 27 27 26 26 29 30 31 35 42 45 43 42 42 41 40 40 40 37 35 33 31 29 29 31 31 28 23 22 23 23 24 23 21 19 18 16 14 12 11
19 22 25 23 21 17 14 11 9 12 19 24 26 28 29 29 29 30 31 30 30 29 27 26 27 27 27 28 30 31 33 40 44 44 44 44 44 43 43 43 43 42 39 37 36 35 34 34 36 33 26 23 25 25 25 24 21 19 18 16 14 12 11
21 25 24 23 22 18 15 12 11 13 17 19 22 25 26 27 28 30 30 29 28 28 27 26 27 26 26 27 29 31 36 40 41 43 45 45 44 44 45 45 48 50 46 44 44 44 41 39 39 37 31 25 26 26 25 24 22 19 18 16 14 12 11
22 26 24 23 23 20 16 13 13 15 18 20 20 21 23 24 25 26 27 27 27 27 26 25 25 24 24 25 27 31 33 35 37 40 45 48 46 44 45 46 49 53 51 48 49 49 47 45 42 40 36 29 26 27 26 24 22 19 17 16 14 13 13
24 27 25 23 24 21 17 16 16 16 19 22 22 22 22 22 22 23 23 23 23 22 22 21 21 22 23 25 28 29 31 33 37 39 45 53 53 45 44 47 50 53 51 49 51 52 51 52 48 41 37 33 29 27 26 24 21 19 17 17 15 14 15
25 28 28 25 23 21 18 19 18 17 19 23 24 24 24 21 20 19 18 18 17 17 18 19 20 23 25 29 30 32 34 36 38 39 43 52 54 47 43 46 49 51 50 50 53 54 54 55 52 43 38 35 30 26 25 23 20 19 18 18 16 16 16
25 28 30 27 24 23 22 22 21 19 20 22 23 25 24 21 19 18 16 15 15 17 20 22 25 27 29 32 33 35 37 36 36 37 38 44 51 50 41 36 37 40 44 48 53 57 57 57 55 46 40 36 30 25 24 22 20 20 20 20 18 17 18
23 26 29 28 26 26 26 25 23 21 22 22 23 25 24 22 19 17 16 17 19 22 25 27 29 30 32 34 36 37 39 37 36 37 36 39 47 47 36 28 26 30 37 44 51 56 57 58 59 51 41 36 31 26 24 22 21 21 21 21 20 19 20
22 25 27 26 26 28 29 27 24 22 23 23 23 23 22 21 19 19 21 24 26 27 29 30 30 32 34 36 37 38 39 38 37 37 36 37 40 37 30 26 25 26 32 38 47 55 58 62 64 54 42 41 36 28 26 25 22 22 22 22 22 21 22
23 24 27 27 27 30 31 28 25 23 23 24 24 23 22 22 23 25 28 29 29 28 28 29 30 32 33 34 35 36 37 38 37 36 34 32 32 30 30 31 29 28 32 38 46 54 58 65 66 53 42 44 40 33 32 28 21 20 23 23 23 24 24
25 26 27 28 30 34 33 29 27 26 25 24 24 24 26 27 29 30 31 30 28 27 27 27 28 29 29 28 29 31 33 35 36 36 34 31 31 31 32 32 29 29 34 39 47 54 56 61 63 52 44 45 43 40 35 25 18 21 24 24 25 26 26
28 27 26 27 32 37 34 29 28 28 28 28 28 29 31 32 32 31 30 28 26 25 24 24 24 24 23 23 24 26 29 32 35 37 34 31 32 34 35 35 33 32 34 38 45 50 51 56 57 48 44 46 45 41 32 22 21 25 24 23 25 27 27
31 27 27 29 33 36 33 28 28 30 31 33 33 34 34 33 30 28 27 26 24 22 22 21 21 20 20 20 22 24 26 30 33 34 32 31 33 34 38 40 37 36 37 38 39 37 38 45 46 39 40 45 42 36 28 23 23 23 21 22 26 28 29
31 29 30 32 33 34 34 32 32 33 32 32 33 33 32 30 27 26 24 22 20 20 19 19 19 19 19 20 22 24 26 28 30 30 30 32 33 34 38 39 38 39 40 35 30 25 25 31 33 33 39 42 37 32 27 22 22 22 22 24 27 29 29
33 33 35 34 31 33 37 35 34 34 32 31 31 30 29 27 26 24 22 20 19 19 19 19 19 20 20 21 23 25 26 26 28 29 29 30 31 33 35 32 31 34 32 23 18 18 20 24 27 30 35 35 31 28 24 21 21 22 22 24 26 28 28
33 33 33 30 29 34 37 35 34 32 30 30 29 27 26 25 24 22 20 19 19 19 19 20 20 20 21 22 24 25 26 27 28 29 29 28 29 31 30 24 21 21 18 13 12 16 19 22 25 29 30 29 27 25 24 23 25 24 22 23 24 26 29
27 26 26 26 29 33 33 32 31 29 29 29 28 27 25 24 22 20 18 17 17 17 17 18 19 20 21 22 24 25 27 28 29 28 27 27 27 28 25 18 14 15 16 15 15 17 19 23 27 29 29 28 26 26 27 27 28 27 27 25 23 26 30
23 24 27 29 30 30 30 30 31 31 31 30 29 27 25 23 19 17 16 15 15 15 16 17 18 19 21 23 25 27 28 30 29 27 26 26 26 26 22 15 12 16 19 18 18 19 22 26 30 31 30 28 28 28 28 27 27 28 27 24 23 27 29
24 27 31 32 32 31 30 30 31 31 30 28 26 24 21 19 18 18 17 17 19 20 21 20 20 20 22 24 26 29 30 29 27 25 25 25 24 23 18 13 11 15 18 20 21 21 23 27 30 30 29 29 29 29 27 26 25 25 23 22 23 26 27
29 30 31 32 32 32 31 30 29 28 25 23 21 19 16 16 18 21 23 26 27 27 24 22 21 21 23 25 27 29 29 27 25 24 24 23 22 19 14 11 11 13 17 20 20 20 22 25 27 29 29 29 29 27 25 24 24 24 24 24 25 26 27
32 32 32 32 32 33 33 32 30 27 22 19 18 18 19 22 25 27 28 28 26 24 22 21 21 21 22 24 26 27 27 25 24 23 22 20 18 14 10 9 10 12 16 19 19 21 23 25 28 30 30 28 26 24 23 23 24 24 25 25 25 26 26
32 31 31 30 29 27 26 25 24 23 22 21 21 23 27 31 30 25 22 20 20 21 22 22 21 21 22 25 28 29 27 24 23 21 18 17 14 11 8 8 9 12 16 19 20 22 25 27 30 31 29 25 23 23 25 25 24 23 24 25 25 25 24
26 25 24 23 21 21 20 20 20 22 23 26 28 30 32 32 28 23 20 18 20 24 26 26 26 28 31 33 33 30 26 22 19 17 15 14 11 7 5 6 8 12 15 17 19 22 25 26 26 25 24 24 26 28 27 25 24 24 25 24 24 23 24
23 22 21 19 18 18 19 20 22 23 24 25 27 29 29 28 28 27 27 28 29 32 33 34 35 37 37 35 32 26 21 18 15 13 12 11 7 4 4 6 10 13 15 17 19 22 24 22 20 19 21 24 26 25 23 22 23 24 24 23 23 24 26
19 19 18 18 17 17 18 18 19 21 23 23 24 27 29 30 31 32 33 34 36 38 39 38 36 34 31 27 24 20 17 14 12 10 8 7 4 3 5 9 12 15 18 20 22 23 22 20 19 22 24 25 23 22 23 24 25 24 23 23 24 26 28
14 14 15 16 16 17 18 19 20 23 25 26 27 28 30 31 31 29 27 28 32 34 34 31 29 25 23 20 18 16 13 10 8 6 5 3 2 4 8 11 14 17 20 23 24 22 20 20 23 25 25 24 24 25 26 26 25 24 23 23 25 27 29
13 15 16 18 19 20 21 22 24 25 26 26 27 26 26 25 24 21 20 22 24 25 25 24 22 21 19 16 14 11 8 5 4 4 2 2 2 4 8 10 12 14 17 20 22 22 23 24 25 25 25 24 26 27 27 27 26 25 23 24 26 29 30
20 21 21 21 22 22 22 23 24 24 24 24 24 23 22 21 19 17 17 20 21 21 22 22 20 18 17 14 11 7 4 3 3 3 1 2 3 4 5 8 10 10 12 15 19 23 24 26 26 25 25 26 27 28 28 27 25 24 24 26 28 30 31

ECMWFFLT1_700_spd_012.txt.gz
Wind_Speed
13 15 16 19 25 30 32 31 28 26 26 26 25 25 28 31 31 30 28 27 25 25 24 23 22 20 19 19 20 20 19 19 18 18 17 17 16 16 16 16 15 14 12 11 10 9 8 8 8 9 9 10 10 10 11 12 13 14 14 14 13 12 12
13 15 16 17 21 25 30 32 31 29 29 29 27 25 27 30 31 30 28 27 26 25 25 24 22 21 19 20 20 20 20 19 19 19 19 17 16 16 16 16 16 15 15 14 14 13 12 11 11 11 11 12 12 12 12 13 14 15 15 15 14 13 12
15 14 16 18 20 22 24 27 29 31 32 31 30 28 27 28 29 29 29 27 26 26 26 25 23 22 21 21 21 21 21 21 21 21 21 19 18 18 18 18 17 17 18 17 17 16 15 14 14 13 13 13 13 14 14 14 15 15 15 15 15 14 13
19 15 15 17 19 20 21 22 24 29 32 33 32 30 27 26 26 28 29 29 28 27 27 26 24 24 24 23 23 22 22 23 23 24 23 22 22 21 21 21 20 20 20 20 19 18 17 17 15 15 15 15 15 15 16 16 16 16 16 15 15 14 13
20 19 18 17 18 20 21 22 23 26 30 33 33 32 29 26 25 27 29 30 30 29 28 27 26 26 26 26 26 25 25 25 26 26 25 25 25 25 25 24 24 24 24 23 22 20 19 18 17 16 16 17 17 17 18 18 18 18 18 17 15 14 14
20 21 21 19 18 20 22 23 23 25 28 32 35 34 32 28 26 27 28 29 29 29 29 29 29 29 28 28 29 29 28 28 28 28 27 27 28 28 28 27 27 27 27 26 25 23 22 21 20 18 17 18 19 18 19 19 19 19 20 19 17 15 15
21 22 22 20 18 20 22 22 23 25 27 30 34 35 34 32 29 28 28 27 27 27 28 29 29 29 29 29 30 30 30 30 30 30 29 30 31 31 31 31 30 30 31 30 29 27 25 25 25 23 21 20 20 20 21 20 19 21 21 21 19 17 15
20 22 23 20 17 18 22 24 26 27 28 29 33 35 35 34 32 30 29 27 26 27 28 28 29 29 28 28 29 30 30 30 31 32 33 33 34 34 34 34 33 33 33 32 32 30 27 26 27 26 24 24 25 25 23 21 20 22 23 22 21 19 17
19 20 22 19 17 18 22 26 27 28 29 29 31 33 34 35 34 33 32 29 27 27 27 28 28 28 27 27 27 27 27 29 31 33 35 36 36 37 37 36 36 36 35 34 34 33 30 28 26 24 25 28 30 28 24 23 22 23 24 24 22 20 18
19 20 22 21 21 22 24 27 27 27 29 30 30 30 31 34 34 33 33 31 29 29 28 27 28 28 28 27 26 26 26 27 29 31 33 34 36 38 39 39 38 37 36 35 35 34 33 31 29 30 33 34 34 32 28 27 26 24 24 24 23 21 18
20 21 24 24 25 25 27 28 27 26 28 30 31 30 30 32 33 33 32 31 31 30 29 29 29 29 29 27 26 27 27 28 29 30 30 31 35 39 40 41 40 38 37 38 38 37 37 37 37 39 43 42 38 35 32 31 30 27 24 24 24 21 18
21 21 22 23 24 26 28 28 25 25 27 29 30 29 29 30 31 32 32 32 32 32 31 31 30 30 30 28 27 28 29 29 29 30 30 31 36 42 44 42 40 39 40 41 40 39 42 46 45 43 45 46 42 38 35 34 34 31 28 25 24 22 19
26 23 22 22 23 27 29 27 22 22 26 28 28 28 28 29 29 30 31 32 33 33 33 32 31 31 31 29 28 29 29 29 29 30 32 33 37 42 43 39 38 40 42 43 42 43 44 45 46 45 45 46 47 46 42 40 40 38 34 28 23 22 21
30 28 24 22 23 28 30 25 21 21 23 24 25 26 27 29 29 29 29 30 32 33 33 33 32 32 31 30 30 30 28 28 29 31 34 35 40 45 41 36 37 40 41 42 41 40 40 39 40 45 47 47 49 51 49 47 46 43 38 32 25 22 22
29 29 25 22 25 31 29 25 22 20 21 21 21 22 23 26 28 28 28 28 30 32 33 33 33 32 31 30 30 29 29 29 30 32 34 34 40 46 40 34 34 32 32 34 35 37 42 43 43 47 51 51 50 52 53 53 52 45 38 36 31 25 24
28 29 25 22 27 32 29 26 23 21 22 22 21 21 21 23 24 24 25 27 29 31 33 34 34 32 31 29 28 29 29 30 30 32 34 34 37 39 34 30 31 29 27 29 32 37 44 48 48 48 52 53 52 54 57 58 57 50 42 41 40 32 28
27 28 26 23 28 33 31 28 25 23 24 23 22 23 23 23 24 24 24 26 28 30 32 33 31 29 27 27 27 28 29 29 31 33 35 33 30 29 28 28 29 29 29 29 30 32 37 42 45 46 49 51 51 55 60 60 61 58 49 46 46 41 36
27 28 26 24 28 34 33 30 26 24 25 25 25 27 26 25 25 25 25 27 27 28 28 27 26 25 25 27 27 28 29 31 33 34 34 31 27 25 27 28 28 27 27 29 29 29 31 37 41 43 46 48 49 55 60 61 62 61 53 49 49 46 42
27 28 27 25 28 34 35 30 27 26 26 26 28 30 29 28 27 27 27 26 25 25 25 25 26 26 27 27 28 28 30 31 32 32 32 30 27 25 25 25 26 26 25 27 29 29 30 33 36 39 43 48 51 54 58 61 61 59 54 49 47 46 44
28 29 29 28 27 33 37 33 28 28 29 28 29 30 31 31 30 29 28 26 26 26 26 27 28 29 28 28 29 29 29 29 30 31 30 28 25 24 24 24 25 26 27 29 30 30 30 32 33 36 40 46 52 55 57 59 60 57 52 46 43 43 42
31 30 30 29 27 32 38 37 32 31 31 30 31 32 33 33 32 30 29 29 29 29 29 29 30 30 29 29 29 28 27 28 29 28 26 25 24 25 26 26 25 26 28 30 30 30 31 32 34 35 37 42 48 52 54 58 60 55 49 45 43 43 42
35 33 31 29 27 30 36 37 36 35 33 32 33 33 33 33 32 33 33 31 31 31 31 31 31 31 30 30 28 27 26 26 25 24 24 25 26 26 26 26 26 26 27 28 30 29 28 28 29 31 36 41 45 48 51 57 59 53 46 45 44 42 41
36 36 34 32 30 31 34 37 39 38 36 34 33 33 33 33 33 34 35 33 33 33 33 32 32 31 30 29 27 26 25 24 23 24 25 26 27 27 26 26 25 25 26 28 29 26 23 22 20 22 27 33 38 43 48 54 56 52 46 44 41 38 38
35 35 34 34 33 32 34 36 40 41 38 34 33 33 34 34 34 34 34 34 34 34 33 32 31 31 29 27 25 24 23 23 24 25 26 27 27 27 27 27 26 25 26 28 29 26 23 21 20 22 25 27 30 35 41 48 53 50 45 40 36 35 34
34 34 34 35 35 34 34 35 38 41 40 37 36 35 35 36 36 36 36 37 36 34 32 31 30 29 27 24 23 22 23 24 26 27 28 28 28 28 29 29 28 27 27 28 28 25 21 18 17 22 28 32 32 33 38 45 48 43 38 35 33 32 31
35 36 36 36 37 36 35 35 37 39 41 42 40 38 38 38 39 39 38 36 34 31 30 29 27 25 22 21 21 22 24 27 29 30 30 29 28 28 29 30 29 29 28 27 26 22 18 14 13 15 21 28 31 30 33 37 37 32 29 30 30 29 28
35 37 37 37 37 36 35 37 37 36 39 43 43 41 42 42 40 40 37 34 32 30 28 26 23 20 20 20 22 25 29 31 32 33 31 29 28 28 29 30 30 28 27 27 25 21 16 13 12 12 15 20 24 25 27 27 26 24 25 26 26 26 26
33 35 36 36 35 35 36 38 37 33 36 44 45 42 42 41 39 38 35 32 30 28 24 21 18 18 19 22 25 28 31 33 35 35 32 30 30 31 32 31 29 27 25 25 23 20 15 13 12 12 13 16 20 21 21 21 21 22 23 24 24 24 25
31 32 33 34 35 35 35 35 34 33 38 45 46 42 40 39 38 36 33 30 26 21 18 17 17 20 24 25 26 29 32 35 35 34 32 32 34 35 33 30 27 24 23 22 19 16 13 12 13 14 15 18 20 20 20 20 20 21 22 23 23 23 25
28 28 29 30 31 32 32 32 33 36 40 42 41 38 36 34 31 28 25 23 22 23 23 22 22 24 26 26 28 32 35 36 34 32 33 36 37 35 31 27 24 22 21 18 14 12 12 13 14 16 17 19 20 20 20 20 20 20 22 23 24 25 26
22 22 23 25 26 28 30 32 34 37 38 38 36 34 31 30 29 26 23 22 22 25 26 26 26 28 30 32 35 37 36 34 33 34 37 38 35 31 26 22 21 21 19 14 11 10 12 14 15 15 16 17 19 21 22 22 21 22 23 24 25 26 28
22 23 25 27 29 30 31 31 31 32 33 32 31 29 28 27 28 28 27 27 27 25 25 26 29 33 35 36 36 36 35 35 36 37 38 35 30 26 23 20 21 20 15 10 9 10 12 13 14 15 16 17 20 22 23 24 23 22 22 24 25 27 28
29 30 30 31 32 32 31 29 28 28 28 26 25 24 23 21 21 22 24 25 26 26 26 28 30 31 31 31 33 35 36 37 37 36 35 31 26 23 20 19 20 18 12 8 8 9 11 12 13 14 15 17 21 23 23 23 22 21 22 25 28 29 28
34 34 34 34 34 33 32 30 28 26 24 22 20 19 18 18 19 20 21 21 22 23 26 28 28 28 29 32 35 36 35 34 33 31 29 25 22 20 19 18 18 15 10 8 8 8 10 11 12 14 16 18 21 22 23 23 22 22 24 26 26 25 26
33 34 34 34 33 32 30 28 25 22 20 19 18 17 17 17 17 17 18 19 20 22 25 27 28 29 32 33 33 32 31 30 28 25 22 20 18 18 17 16 16 13 10 8 8 8 10 12 12 14 17 20 21 22 22 22 21 21 22 23 23 24 25
29 29 28 28 28 26 25 23 21 20 18 17 16 16 16 17 17 19 21 23 24 25 26 27 28 28 28 27 26 27 26 24 22 19 18 17 17 16 15 15 15 13 10 8 8 10 11 13 13 13 16 19 19 18 18 20 21 21 22 23 24 26 27
24 23 22 21 21 20 19 18 17 17 16 16 16 17 17 18 20 22 23 24 24 23 23 23 23 23 22 22 23 23 22 20 18 16 16 16 15 14 14 14 14 13 12 11 11 12 13 14 13 14 15 17 18 17 19 22 24 23 24 25 25 27 26
17 18 17 17 16 15 15 16 15 16 16 17 18 19 20 20 21 22 22 21 20 20 21 21 20 20 21 21 21 20 19 17 15 15 15 14 13 13 13 12 13 13 13 13 14 14 14 15 15 16 17 18 19 20 22 24 24 24 25 25 26 26 25

ECMWFFLT1_700_spd_015.txt.gz
Wind_Speed
20 17 23 29 27 23 19 19 21 23 23 22 21 21 21 21 22 25 28 28 28 28 26 25 25 24 24 22 20 19 18 17 16 16 16 17 17 15 15 16 17 17 17 15 14 13 13 12 12 11 11 11 11 11 11 12 13 13 14 14 14 14 13
21 17 22 29 28 22 18 19 21 22 23 23 22 22 22 21 20 22 24 26 27 27 26 25 25 25 24 22 20 19 18 18 17 17 17 17 16 15 16 17 18 19 18 17 16 16 15 15 14 14 14 14 13 12 12 12 13 14 15 15 16 16 15
21 17 19 28 29 22 18 20 21 22 23 23 23 23 23 22 20 19 21 23 25 26 26 26 25 25 24 23 21 20 19 19 18 18 17 17 16 16 18 18 19 20 20 20 19 18 17 17 16 15 15 15 15 15 14 14 14 15 16 17 17 17 17
22 20 19 26 28 23 20 21 22 22 23 23 22 23 24 23 21 19 19 21 24 26 26 25 24 24 24 23 22 21 21 20 19 18 18 18 18 19 20 20 21 21 21 21 21 20 20 19 18 17 17 17 19 20 20 20 19 18 18 19 19 19 19
20 21 22 25 25 23 24 24 23 22 22 23 23 24 25 25 23 22 20 20 23 26 26 24 23 25 25 24 24 23 22 21 20 19 19 19 20 21 22 22 23 23 22 22 22 22 23 23 21 20 19 20 23 25 27 28 26 24 24 24 23 21 20
19 19 19 21 20 21 23 23 23 23 22 24 24 24 26 27 25 24 22 21 23 26 27 26 26 26 26 25 25 25 24 22 21 20 20 21 22 23 24 25 26 26 25 25 24 25 26 26 25 24 23 24 27 29 30 30 30 29 27 27 28 25 22
22 21 21 19 17 16 18 20 22 24 23 24 25 25 27 29 28 26 25 23 23 25 27 28 28 27 26 26 26 26 25 24 23 22 22 22 24 26 27 28 29 30 30 29 28 29 28 28 28 28 28 31 34 35 35 33 32 33 30 30 31 28 25
21 23 24 20 18 17 16 18 20 24 25 25 26 25 26 30 30 29 27 25 24 25 26 28 29 29 28 28 28 27 26 25 25 25 25 25 27 28 29 31 32 33 33 32 31 31 30 31 32 33 35 37 38 39 39 37 37 37 36 36 34 29 26
20 23 23 18 16 17 15 18 20 24 26 27 27 26 25 29 32 30 29 28 26 26 25 26 28 30 29 29 29 27 26 27 28 28 27 28 29 30 31 33 33 35 36 35 34 34 34 34 35 36 38 39 40 39 39 40 42 40 38 38 37 32 29
16 19 21 18 18 18 16 17 20 24 27 28 28 26 25 28 32 32 30 29 29 27 26 25 27 29 29 28 28 27 27 28 28 29 29 31 31 32 34 34 34 37 38 36 33 32 33 34 36 37 38 39 40 39 39 42 44 42 38 39 40 37 32
16 17 22 21 21 19 16 16 19 23 26 29 29 26 25 27 31 33 32 31 30 29 28 27 27 28 28 27 27 27 27 27 28 29 30 31 31 32 33 34 34 36 37 34 30 29 29 30 33 37 40 42 42 41 41 42 44 44 42 40 39 38 35
19 20 24 24 24 19 15 16 19 22 25 28 28 25 25 27 29 31 32 31 31 31 30 29 28 28 28 27 25 27 27 26 26 28 29 29 28 27 30 31 32 35 34 30 29 30 31 33 35 37 41 44 45 44 43 43 44 46 45 43 41 38 38
22 25 27 27 26 22 20 20 20 22 25 27 27 25 26 28 28 29 31 31 32 32 32 31 30 30 31 29 26 26 27 26 26 27 27 26 25 26 29 30 31 34 31 28 31 34 35 37 39 39 42 45 47 47 46 46 46 47 47 45 43 42 41
26 29 29 27 26 25 24 24 22 22 24 26 27 26 28 29 27 27 30 30 30 32 34 33 32 32 33 33 29 27 27 26 27 28 28 26 26 27 30 31 32 33 31 30 34 36 36 37 38 40 43 47 48 49 48 49 49 49 48 46 44 44 43
24 27 27 27 26 25 24 25 24 24 24 27 28 28 30 30 28 28 29 29 30 32 34 34 33 34 34 34 32 29 27 27 27 28 28 29 28 26 28 30 31 32 32 33 35 35 35 35 36 39 43 46 48 49 50 52 52 51 50 48 46 45 45
22 23 27 30 28 23 23 25 26 26 26 29 30 30 30 29 28 28 28 28 28 31 35 36 35 33 32 32 33 31 28 27 28 29 30 30 27 26 27 30 31 32 33 33 32 32 33 33 35 38 41 44 46 48 51 53 53 52 51 50 48 47 46
22 21 25 29 28 23 21 23 26 27 27 30 30 30 29 28 27 26 26 26 26 29 34 36 35 32 30 31 32 31 29 29 30 31 30 29 28 28 28 29 30 30 30 29 27 27 29 31 34 37 40 43 44 45 49 52 53 53 51 51 50 49 48
24 23 25 29 29 26 20 20 25 27 29 31 30 30 29 27 25 24 25 26 25 27 31 33 33 31 30 30 30 30 31 31 31 29 29 29 29 28 28 27 27 25 24 23 23 24 26 29 32 35 38 41 42 42 45 50 53 52 51 52 52 51 50
29 28 26 29 32 30 24 23 24 26 32 32 30 31 29 27 26 25 25 27 26 27 30 32 33 31 29 30 30 31 32 31 30 30 29 28 28 28 27 25 22 19 19 20 22 24 26 27 30 33 35 38 39 40 42 48 52 49 49 52 53 51 51
36 33 29 31 32 29 26 26 25 26 34 34 31 33 32 30 29 27 27 29 29 29 30 31 33 32 29 30 31 32 33 32 31 31 29 28 29 29 25 21 18 17 19 21 22 24 25 26 29 32 33 34 36 38 41 46 48 46 46 49 51 51 52
39 37 36 33 30 27 27 28 25 25 35 37 34 35 35 33 32 30 30 32 32 32 32 33 34 32 30 31 32 33 34 32 31 31 29 29 28 25 21 18 18 19 21 22 22 23 23 25 29 31 32 32 34 37 40 41 41 42 44 47 49 50 51
38 40 42 39 36 34 34 31 25 24 33 39 37 36 37 36 34 33 34 34 33 34 34 34 34 32 31 32 33 34 33 32 31 30 29 27 24 20 18 18 18 20 21 21 21 21 23 25 28 31 32 32 33 37 39 38 37 39 41 43 46 49 49
38 38 40 43 44 41 35 31 27 24 29 38 40 38 37 38 37 36 37 36 34 34 34 33 33 33 32 33 34 34 33 31 30 29 26 22 18 16 16 17 18 19 20 19 19 21 23 26 29 32 33 32 33 35 35 32 31 32 32 32 35 39 41
39 37 39 42 42 39 34 31 29 27 27 33 40 41 39 39 39 38 38 37 35 35 35 35 34 34 34 34 35 34 33 31 29 26 22 18 16 15 16 16 17 18 18 19 20 23 27 30 33 33 32 31 31 32 32 31 30 32 33 32 30 31 33
42 41 42 42 39 37 35 32 31 30 27 29 37 43 43 40 39 38 38 38 37 36 36 37 36 36 36 36 35 34 32 30 27 23 20 17 16 17 17 16 17 19 21 24 26 28 31 32 31 30 29 29 30 32 33 33 31 30 32 33 33 31 30
42 43 43 41 38 37 36 34 32 31 29 29 34 40 43 41 40 40 39 38 38 38 38 39 38 38 38 37 35 33 30 27 23 19 18 18 18 19 19 19 20 23 27 31 33 31 30 29 27 27 27 28 30 31 31 29 27 25 25 26 27 27 26
39 43 41 39 39 38 37 35 32 31 30 30 30 34 41 44 43 41 40 38 38 39 40 41 40 39 38 36 33 29 25 21 18 16 17 19 20 21 23 25 27 29 32 35 34 29 26 25 26 25 26 27 29 29 27 25 24 23 21 20 20 21 21
36 41 41 40 41 39 37 35 33 32 32 32 30 30 38 46 46 42 40 40 41 41 41 41 40 38 36 32 27 23 19 15 15 17 21 22 24 27 31 32 34 35 36 36 32 27 24 24 25 25 25 26 26 25 23 21 20 19 18 17 18 18 16
33 38 41 42 42 41 40 38 37 35 34 34 34 32 35 42 46 44 42 43 43 42 41 40 38 36 33 29 25 23 20 19 21 23 25 27 30 33 34 33 33 34 34 33 30 26 24 24 24 25 25 24 23 21 18 15 15 16 16 17 17 15 12
32 34 37 40 43 44 43 41 39 37 34 34 36 34 32 37 45 46 44 42 41 40 38 36 33 30 27 25 24 24 25 28 30 30 29 29 30 31 31 31 32 33 32 30 27 24 22 22 23 24 23 22 21 18 13 11 13 16 17 17 15 12 10
33 32 32 35 39 41 41 39 37 36 35 35 36 34 32 35 41 43 42 41 40 38 36 33 30 28 26 25 25 25 28 30 31 29 29 29 29 29 30 32 32 30 28 26 24 21 21 22 23 23 21 19 18 15 12 12 15 17 16 15 12 10 10
34 33 32 33 36 36 36 34 32 31 32 32 32 31 32 34 36 37 38 38 36 34 32 31 30 30 30 28 25 25 27 27 27 27 27 29 30 31 32 31 29 27 25 23 20 19 20 21 22 21 19 17 16 14 12 13 15 15 14 11 10 10 12
31 30 28 28 29 29 28 27 26 27 29 30 31 32 35 36 36 34 33 32 31 29 28 27 26 25 24 24 24 24 24 24 25 26 28 30 31 31 29 27 25 23 21 19 18 19 20 20 20 19 17 15 13 12 12 12 12 12 11 10 11 12 15
27 26 23 21 22 24 25 27 29 31 32 33 34 35 35 35 33 30 29 27 25 24 24 24 24 23 23 23 24 25 26 25 26 28 29 30 29 27 25 22 20 19 17 17 17 18 20 19 18 16 14 12 11 11 11 10 10 11 11 12 13 15 17
23 25 27 27 28 29 31 32 33 33 33 33 34 33 32 31 29 28 28 27 24 23 21 20 21 22 22 22 23 24 25 26 27 29 29 27 25 23 21 19 17 16 15 16 17 18 19 18 16 13 12 11 10 10 10 10 11 11 12 14 15 17 19
28 28 30 31 31 32 33 33 33 33 31 30 30 29 28 27 25 25 25 24 21 20 18 17 18 20 21 22 23 25 25 26 27 27 25 23 21 19 17 16 15 14 15 16 17 18 18 16 15 14 13 11 11 10 10 10 11 12 13 14 15 17 17
31 30 31 31 31 31 32 31 29 28 26 24 23 21 19 19 18 18 17 16 16 16 16 17 19 20 21 23 23 23 24 25 25 24 22 20 18 16 15 14 13 14 15 16 17 18 18 17 16 16 15 13 12 12 11 11 12 13 14 15 15 16 16
28 28 27 26 26 27 28 26 23 20 19 17 16 14 13 12 13 14 14 14 14 15 16 17 18 18 19 19 19 20 22 23 22 20 18 16 15 14 13 13 14 14 15 16 16 17 18 18 17 17 17 15 13 14 14 13 13 14 15 15 16 16 17

ECMWFFLT1_700_spd_021.txt.gz
Wind_Speed
37 38 38 38 35 32 30 28 28 27 23 20 18 15 15 16 16 16 15 13 13 15 19 22 23 24 23 23 22 21 19 18 18 18 18 17 17 15 15 15 13 13 12 12 11 8 7 6 5 5 5 5 6 7 8 9 11 12 12 13 15 17 19
36 35 36 36 35 32 29 27 29 29 26 23 21 18 16 17 17 17 14 12 12 12 15 19 21 22 22 22 22 21 20 19 19 19 18 17 17 15 15 15 14 13 13 12 9 7 6 6 5 6 6 7 7 9 10 11 12 13 14 16 17 19 21
33 32 35 35 32 30 28 27 27 27 26 25 23 21 19 18 18 17 15 13 12 12 14 17 19 21 22 22 22 22 21 20 20 20 18 17 17 16 16 16 15 13 13 10 8 7 6 6 6 6 8 9 9 10 12 13 14 15 17 19 21 21 22
32 32 35 34 31 28 27 28 25 24 26 26 24 24 22 21 20 18 16 15 14 12 12 14 17 19 21 22 22 22 22 21 21 20 18 17 17 17 17 17 14 12 11 9 7 7 6 6 5 6 8 9 11 11 13 14 15 17 18 21 23 24 25
34 34 35 34 31 28 27 27 24 21 25 26 26 26 25 23 22 21 19 18 16 14 12 13 15 17 20 22 23 23 23 22 22 21 19 17 18 18 18 16 13 10 9 9 8 7 7 7 6 6 7 9 11 13 14 15 16 18 20 22 24 26 27
35 35 36 34 30 29 27 25 22 21 24 26 26 26 26 25 25 24 22 20 19 18 16 15 17 18 19 22 24 24 24 23 23 22 20 18 18 19 18 15 12 10 9 9 9 8 8 8 8 8 8 10 12 13 15 16 17 19 21 23 24 26 28
34 32 33 32 30 29 28 23 19 21 23 25 27 26 26 26 26 26 25 23 22 21 19 17 18 19 19 22 24 25 24 24 24 23 21 19 19 19 17 15 13 12 11 10 10 10 9 9 9 10 11 12 13 15 17 18 19 22 24 25 26 27 28
34 31 30 30 30 30 28 22 18 21 24 26 27 26 25 24 24 26 27 26 24 24 22 19 18 20 20 22 24 25 25 25 24 24 22 21 20 18 16 14 13 13 12 12 11 10 10 10 10 11 13 14 15 17 18 20 21 23 26 28 29 29 31
38 34 30 28 30 31 29 24 19 21 25 28 28 26 24 24 24 26 27 27 26 26 24 21 19 20 21 23 24 25 25 25 25 25 24 22 21 18 16 14 13 13 13 12 11 11 10 10 11 12 15 16 17 17 19 20 22 24 26 29 31 32 33
38 34 30 30 30 32 31 26 22 23 25 27 28 27 26 25 25 26 26 26 27 27 25 23 21 21 22 24 24 25 26 26 25 26 25 24 21 18 16 15 15 14 13 13 12 12 11 11 11 13 15 17 18 19 21 22 24 26 28 30 32 34 35
37 33 30 30 32 35 34 27 23 24 25 25 27 26 26 28 27 26 25 25 26 27 26 25 24 23 23 24 25 26 27 26 26 26 26 24 21 19 17 16 16 15 14 13 12 12 12 12 13 14 15 17 19 21 23 25 26 28 30 32 34 36 37
32 31 29 29 32 36 34 26 21 23 25 24 24 23 23 26 26 24 23 24 26 26 27 27 27 25 24 24 26 27 26 26 26 25 25 23 21 19 18 17 16 16 15 14 13 13 14 14 15 15 16 18 20 22 24 26 28 30 31 32 34 37 38
29 27 28 29 31 34 33 25 21 22 23 22 21 19 21 23 23 23 23 23 25 25 26 28 28 27 26 25 25 26 26 26 25 24 23 22 21 20 19 18 17 16 15 14 14 14 14 16 17 17 19 21 23 25 27 28 30 31 32 34 36 38 38
30 29 31 30 29 33 34 26 22 21 19 18 16 15 17 20 22 23 22 23 24 25 25 28 29 29 28 27 26 26 25 24 23 23 23 22 21 21 20 19 18 17 17 16 15 15 16 18 19 21 22 23 25 27 29 30 31 31 33 35 37 38 38
25 28 32 31 29 32 32 27 24 22 18 17 14 12 13 16 19 21 22 22 24 24 24 26 29 30 30 29 28 27 24 23 23 23 23 22 22 22 22 20 19 19 18 18 16 16 18 20 22 22 23 24 25 27 28 29 29 30 32 34 36 38 37
20 22 26 28 29 30 28 23 22 21 21 20 17 15 14 15 17 20 21 21 23 25 25 25 28 30 30 30 30 28 25 24 24 23 23 23 24 23 23 22 21 20 20 19 19 19 20 21 22 22 23 24 25 26 26 26 25 26 28 32 35 37 34
20 21 23 26 29 28 23 19 19 20 22 23 22 21 19 17 18 19 20 21 23 25 25 24 26 28 28 28 29 29 27 25 25 24 23 23 23 24 23 22 22 21 22 22 21 21 21 22 22 23 23 24 24 22 21 20 21 23 27 31 35 35 33
18 17 19 22 25 26 22 20 22 24 24 24 26 27 25 22 21 21 21 21 22 24 26 25 24 26 26 25 26 28 28 27 27 26 24 24 23 23 22 22 22 23 23 23 23 22 22 23 24 24 24 23 20 17 16 17 20 24 28 31 35 36 34
21 19 19 19 21 23 22 21 23 25 27 28 28 30 29 25 24 22 20 20 21 24 27 26 25 25 24 23 23 26 27 28 28 27 26 25 24 23 23 22 23 23 24 24 24 24 24 25 25 25 24 20 16 13 15 19 24 29 33 34 35 36 34
27 25 25 25 26 26 25 25 25 25 26 27 27 28 27 25 24 22 20 20 22 26 28 28 27 25 24 23 22 24 26 27 29 29 28 27 27 26 25 25 25 25 25 25 25 25 26 25 25 24 21 17 13 13 18 24 30 36 41 39 36 36 34
30 29 28 27 28 29 30 30 31 29 27 25 25 25 25 23 22 22 22 22 24 27 30 30 28 26 25 23 22 23 25 27 29 30 29 29 29 29 28 28 28 27 26 26 27 26 25 25 24 21 17 14 14 17 25 33 37 42 45 42 37 35 34
29 28 29 30 30 30 30 29 31 30 27 25 24 23 25 24 21 22 23 24 26 28 31 32 30 28 27 25 23 23 25 27 29 30 31 31 30 29 29 29 28 27 27 28 27 26 25 23 20 16 14 13 16 24 31 36 38 41 45 42 37 35 33
24 21 26 31 32 30 28 29 32 31 28 28 28 26 25 23 22 22 23 25 28 30 32 34 32 30 28 27 25 25 26 29 30 32 33 32 30 28 27 27 26 27 28 28 27 25 23 19 17 15 14 15 21 28 31 35 37 39 42 40 36 33 30
25 22 23 27 29 29 29 29 33 34 31 30 32 30 29 28 27 26 24 25 29 31 34 36 35 32 31 30 29 28 30 31 33 34 34 32 29 27 26 25 26 27 27 27 26 24 21 20 19 18 17 19 24 27 31 36 38 38 39 37 34 32 26
34 33 31 30 30 31 32 32 33 34 33 32 33 34 34 34 35 34 31 27 30 33 37 38 37 34 33 32 32 32 33 34 35 35 35 32 28 27 26 26 27 27 27 27 26 24 23 23 22 20 20 22 25 27 34 40 39 36 36 35 34 31 25
41 44 43 41 41 39 37 35 34 35 35 35 37 38 39 39 41 43 39 32 31 35 38 40 38 36 34 35 35 36 36 35 35 35 35 32 28 27 27 28 28 28 29 29 27 26 26 25 22 21 22 24 26 30 37 40 37 34 34 34 32 30 25
37 41 40 41 45 45 44 41 40 40 39 38 40 42 42 42 44 47 44 38 35 35 39 41 40 38 37 37 37 38 37 36 36 36 35 32 29 29 30 30 30 31 31 30 28 28 26 24 22 22 24 25 29 33 37 38 34 32 32 32 30 27 24
29 35 36 36 40 42 43 43 44 45 45 45 45 44 42 43 46 48 46 43 39 36 37 42 42 40 40 39 38 38 37 36 37 38 36 33 32 32 32 32 33 33 31 29 28 27 24 21 21 22 23 26 29 32 35 36 33 32 31 30 27 24 21
22 25 27 30 33 36 39 41 41 43 46 48 48 45 43 44 48 50 48 46 43 39 38 42 45 43 41 40 39 38 37 37 38 39 37 35 33 32 32 34 35 33 30 29 28 25 21 20 20 21 24 27 28 31 35 35 33 31 29 27 24 21 19
26 26 25 25 25 26 30 32 32 33 39 45 46 46 46 48 50 50 48 46 44 42 40 42 46 46 44 42 40 39 39 40 41 40 38 35 34 34 35 35 33 31 30 29 26 22 19 19 20 23 25 27 31 36 38 35 31 29 27 23 21 20 18
30 32 33 31 28 25 25 28 28 28 33 41 43 43 46 47 48 48 47 45 44 42 41 42 46 48 47 44 42 42 43 45 44 42 39 36 35 35 35 33 31 30 28 25 22 19 19 20 23 25 27 31 38 41 36 31 27 25 23 21 20 18 16
30 31 32 34 35 33 31 31 32 34 37 40 40 40 43 46 47 47 46 45 44 42 41 43 45 47 48 46 46 46 47 47 46 42 38 36 35 33 31 30 29 27 23 20 18 18 20 23 27 29 32 36 38 35 29 25 23 22 20 19 18 16 15
31 33 33 33 35 37 38 39 40 41 41 39 36 36 37 41 45 46 46 45 43 42 43 43 44 46 48 48 48 48 47 45 42 38 35 34 33 32 31 29 25 22 19 18 19 21 24 26 29 31 32 32 29 26 23 21 20 19 18 17 16 15 14
31 34 35 36 36 37 39 42 46 47 46 46 46 41 36 39 43 45 46 46 45 45 46 46 46 48 50 50 48 45 42 38 35 34 34 34 33 31 28 24 21 18 18 19 21 24 25 27 28 28 27 25 23 21 19 18 17 16 15 14 13 12 11
33 34 36 37 38 39 41 41 44 48 49 50 54 53 45 41 46 49 50 51 51 51 50 50 50 49 46 44 40 37 34 34 33 33 33 31 29 26 22 20 19 19 20 21 22 23 24 24 24 24 23 22 20 19 17 15 14 13 13 12 11 10 9
33 34 35 36 36 40 44 44 43 45 49 52 54 53 47 43 47 52 53 52 52 50 48 46 43 39 34 32 32 32 34 34 33 30 27 25 22 20 19 19 19 19 19 19 20 21 20 20 20 20 19 19 18 16 15 14 12 12 11 10 10 9 9
30 31 31 31 30 32 39 46 46 43 46 50 50 46 44 43 45 45 45 44 42 40 37 34 32 29 27 29 32 33 32 30 27 24 22 20 19 18 18 18 17 17 18 19 20 19 19 19 19 17 16 16 15 14 13 11 10 10 10 10 10 10 11
28 29 26 22 20 23 30 41 46 41 36 36 37 37 37 37 35 32 30 30 28 27 25 24 25 28 31 31 30 28 25 23 20 19 18 18 17 17 16 16 17 18 18 19 19 18 18 18 18 15 14 14 14 12 11 9 9 9 10 11 12 13 13

ECMWFFLT1_700_spd_027.txt.gz
Wind_Speed
29 29 30 33 34 33 30 27 24 22 22 23 24 24 24 23 23 24 26 28 29 31 32 33 33 33 33 32 31 29 28 28 28 28 26 24 22 20 19 18 18 17 17 18 18 19 18 19 20 20 19 18 17 16 15 14 12 11 10 8 6 5 4
35 31 31 33 35 35 33 30 27 25 23 23 24 24 24 24 24 25 25 25 26 26 28 30 31 32 33 32 32 31 30 30 29 29 29 27 24 22 20 19 18 17 18 19 20 21 21 22 22 22 21 20 18 17 15 14 13 12 11 9 8 7 6
39 35 33 34 35 35 34 32 30 29 27 25 24 25 25 25 25 25 24 23 23 23 25 26 28 29 31 32 33 32 32 31 31 31 30 28 25 23 21 20 19 19 20 21 22 23 23 23 23 23 22 20 19 18 16 15 13 12 12 10 9 8 8
40 37 34 34 35 34 34 32 30 30 29 26 25 25 26 26 25 24 23 22 21 22 23 24 24 25 27 30 32 32 32 32 32 32 31 29 26 24 23 21 21 21 22 24 24 25 25 25 24 23 22 20 19 18 17 15 14 12 11 10 9 9 10
38 38 36 36 36 36 35 33 31 30 29 27 26 26 26 25 24 23 22 21 21 21 21 20 20 21 23 25 27 28 29 30 31 32 32 30 28 26 24 23 22 23 25 25 26 26 26 25 25 23 22 20 19 18 17 16 14 12 11 10 9 10 11
36 38 38 36 35 36 35 33 31 30 29 27 27 27 27 26 25 24 22 22 22 22 21 20 20 21 22 22 23 24 26 27 29 31 32 31 29 27 25 23 23 25 27 27 27 27 27 26 25 23 21 20 19 18 17 15 14 12 10 10 10 10 11
31 34 37 35 33 32 33 32 30 29 28 27 27 28 28 26 25 24 24 24 24 24 23 23 23 24 23 23 23 23 24 25 28 30 32 31 30 28 26 25 25 27 29 29 29 29 28 27 25 24 22 21 20 18 16 15 13 12 11 10 10 11 12
28 31 34 34 31 29 29 30 29 29 29 28 29 30 29 27 25 25 25 25 26 26 26 26 26 26 25 24 23 23 23 24 26 29 32 32 30 29 27 26 27 29 30 30 30 29 29 27 26 25 23 22 20 18 17 15 13 12 12 11 12 12 13
28 31 33 33 30 27 26 27 27 29 30 31 31 30 29 28 27 26 26 26 27 28 28 28 28 27 25 24 24 23 23 24 26 29 31 32 31 30 28 28 29 31 31 31 30 30 29 28 26 26 24 23 21 19 17 15 14 14 14 13 13 13 13
26 30 34 33 30 27 25 26 27 30 32 33 32 30 29 28 27 27 28 28 28 28 29 29 29 28 26 26 26 24 24 24 25 28 31 32 31 30 29 28 30 32 32 31 31 31 30 28 27 26 25 23 21 19 17 16 16 15 14 13 13 14 15
24 28 34 34 31 27 26 27 29 30 32 33 32 29 28 28 28 29 29 29 30 30 29 30 31 30 28 28 28 27 26 25 25 27 30 31 32 31 30 29 31 32 32 31 31 31 30 29 28 26 24 22 20 19 17 16 16 15 14 14 15 16 17
25 28 33 35 32 28 26 27 29 30 31 31 30 28 27 28 29 30 30 30 30 30 30 31 32 31 30 30 30 29 29 27 26 27 28 30 31 31 30 30 31 33 33 31 31 31 30 29 27 25 23 21 20 19 18 17 16 15 15 15 16 17 17
25 29 32 34 33 30 28 29 28 28 30 29 28 27 27 28 28 29 29 30 30 31 31 32 32 32 32 33 32 32 31 29 28 26 26 28 30 31 31 31 32 33 33 32 31 31 30 28 27 25 23 22 20 19 18 18 17 16 16 16 16 16 17
29 30 32 36 37 34 31 30 29 28 29 30 29 29 28 28 28 28 29 30 30 31 32 33 33 32 33 35 35 34 33 31 29 28 27 28 30 31 32 32 32 33 34 33 31 31 30 28 26 25 24 23 22 21 20 19 18 17 17 17 16 16 17
32 31 32 35 40 39 34 32 31 30 32 32 31 32 30 28 28 28 29 30 30 32 32 33 33 31 33 35 36 35 35 33 31 29 28 28 30 31 32 33 33 33 33 33 32 31 30 28 27 26 25 24 23 22 22 20 18 17 17 17 16 17 18
29 26 24 27 33 36 35 33 32 32 33 34 33 33 31 29 28 28 29 30 31 32 32 33 33 31 32 34 34 34 35 35 33 31 30 30 30 31 32 33 33 33 33 33 32 31 30 29 28 28 27 26 25 24 23 21 19 18 17 18 18 19 19
23 24 22 22 26 30 32 33 31 31 33 35 35 34 31 30 30 29 28 29 30 31 32 33 33 31 32 32 32 33 35 36 35 33 31 31 30 31 32 33 34 34 33 33 32 32 31 30 30 30 29 28 26 25 24 21 19 19 19 19 20 21 20
19 24 26 26 28 31 32 32 30 29 31 34 36 36 32 30 32 32 31 30 30 30 31 32 32 32 32 31 31 33 35 36 37 36 33 32 32 31 32 33 34 34 34 33 33 32 32 32 32 32 30 29 27 26 24 22 20 21 21 21 22 22 21
18 21 28 31 32 32 31 31 30 29 30 32 35 36 32 30 32 34 32 31 30 31 32 32 32 32 32 32 32 33 34 35 37 37 35 33 33 32 33 34 34 34 33 33 33 34 34 34 34 33 31 30 29 26 24 23 23 23 23 24 24 24 23
19 19 25 30 32 33 32 31 31 30 30 31 33 33 30 30 32 33 32 32 32 32 33 32 32 32 33 34 34 35 35 35 36 38 37 35 34 33 34 34 34 33 33 33 34 35 35 36 36 35 33 31 29 27 26 26 25 25 25 26 26 26 25
23 19 20 23 25 27 29 31 32 32 31 32 34 33 31 30 32 34 33 33 33 32 32 32 31 31 32 34 34 35 36 36 36 37 38 37 36 35 35 35 34 34 34 35 36 36 37 38 37 36 34 32 30 29 29 28 27 27 27 27 27 28 27
25 19 20 21 19 20 22 26 29 31 32 33 33 33 32 32 34 35 34 33 32 31 30 29 29 30 30 32 33 34 36 36 37 37 39 39 39 37 36 36 36 36 36 37 38 38 39 39 39 37 35 32 31 31 31 29 28 29 29 28 29 30 28
24 20 22 23 22 21 20 21 24 26 29 31 31 31 32 34 36 35 33 32 31 30 30 29 30 31 31 32 32 32 33 35 37 38 39 41 41 39 38 37 37 38 39 40 40 41 41 41 40 38 36 34 34 34 32 31 31 31 30 30 31 32 29
23 24 25 25 24 21 19 19 22 23 24 27 30 31 33 36 36 34 32 32 32 31 32 32 33 33 33 33 32 30 29 31 35 38 39 40 41 41 40 39 38 39 40 41 42 42 42 41 40 38 37 37 37 36 34 33 33 32 31 31 32 32 29
25 26 27 27 26 23 20 19 22 23 23 24 26 29 33 36 35 32 31 31 32 32 32 32 32 32 31 31 30 29 28 28 31 35 38 39 40 41 42 41 40 40 41 42 43 43 43 41 40 40 40 39 38 36 35 35 34 32 32 32 33 33 30
26 28 29 30 29 27 24 22 22 23 23 24 24 25 30 34 34 32 31 31 32 33 33 33 33 31 30 29 29 27 26 25 25 28 34 38 39 40 43 43 42 42 42 43 43 43 42 42 42 42 41 39 38 37 36 36 34 33 32 32 33 32 30
24 25 28 29 30 30 29 27 26 26 24 25 26 27 30 33 34 33 33 33 34 34 34 33 32 31 30 29 27 26 25 22 20 21 25 32 38 40 42 44 45 45 44 44 45 44 43 42 41 40 40 39 38 38 37 36 34 33 32 33 33 31 29
23 24 25 28 30 31 31 31 31 31 31 30 30 32 34 37 38 39 38 38 37 36 34 33 32 30 30 28 27 27 27 25 24 23 22 24 31 38 42 44 46 46 46 46 46 46 45 43 41 40 40 40 39 38 38 36 34 33 32 33 32 29 28
18 20 22 25 28 30 30 30 30 30 31 32 32 32 34 36 39 41 42 42 41 39 40 40 37 34 32 32 31 30 29 29 29 28 27 25 26 33 41 45 46 47 49 49 49 49 48 45 43 42 43 42 40 39 37 35 32 32 34 34 31 28 28
14 15 16 18 22 25 27 29 29 29 29 29 30 31 31 32 33 34 36 38 38 38 39 40 40 38 37 36 35 33 34 34 33 32 32 31 30 31 38 44 45 46 49 51 51 51 50 47 45 44 43 41 38 35 33 32 31 32 34 33 29 28 29
17 17 17 17 18 19 22 25 28 30 30 30 29 30 30 31 30 30 31 33 35 37 37 36 38 39 39 38 38 38 37 36 36 37 38 38 38 36 36 41 45 47 49 51 52 52 51 49 47 44 41 39 35 29 27 29 31 33 33 31 29 28 29
18 19 20 21 21 21 21 22 24 26 28 30 31 31 31 30 29 29 30 31 33 36 38 39 40 41 41 40 41 42 42 40 40 41 42 45 47 46 42 42 45 48 50 51 52 52 51 48 44 41 41 41 36 30 28 29 31 33 32 30 29 29 31
18 20 21 22 24 25 26 26 26 26 26 27 29 30 30 29 29 29 29 30 32 34 36 39 41 42 43 44 44 44 46 47 46 45 45 47 51 52 51 48 45 48 51 53 53 53 50 46 41 39 39 38 33 28 27 29 33 34 32 30 30 31 33
20 21 22 23 24 25 27 28 29 30 30 30 30 29 30 30 30 30 29 30 32 34 36 38 39 41 43 45 47 48 49 51 52 52 51 51 51 54 56 54 49 48 51 52 53 53 48 43 40 37 35 32 29 26 26 31 36 35 32 31 32 34 35
18 20 22 23 24 25 26 28 29 31 33 33 33 33 34 35 35 34 34 34 33 35 37 38 39 40 41 42 44 47 49 53 55 55 56 55 53 54 57 57 54 52 52 51 50 48 44 40 38 36 33 31 28 26 28 34 37 35 33 34 36 36 34
16 18 19 21 22 24 25 26 28 30 32 33 34 35 36 37 38 39 40 40 39 39 39 40 41 42 44 45 47 47 48 50 52 55 58 59 57 55 55 58 59 58 56 55 52 47 44 42 39 35 32 30 26 24 30 37 37 36 37 38 38 35 31
17 18 19 19 20 21 22 23 25 27 28 30 32 34 35 36 37 39 41 42 42 43 44 45 45 46 47 48 49 50 51 51 52 54 57 60 60 57 55 56 60 62 59 54 50 48 46 42 38 34 30 26 25 26 34 39 39 38 39 39 36 31 27
20 20 20 19 19 19 20 22 23 24 26 27 29 31 32 32 32 34 38 40 42 44 45 46 47 48 48 48 49 51 54 56 57 58 60 62 63 63 61 56 55 59 60 51 42 42 44 42 38 36 31 26 25 30 37 40 40 39 38 35 31 28 25

ECMWFFLT1_700_spd_030.txt.gz
Wind_Speed
32 34 34 32 31 30 30 30 30 29 27 28 27 26 25 25 26 28 30 32 33 33 33 34 34 34 34 33 31 30 29 28 27 26 25 24 23 22 21 20 19 17 17 19 20 20 19 17 16 15 16 18 18 18 18 18 16 14 13 11 10 8 6
29 30 33 34 34 31 30 30 31 31 29 28 28 28 27 27 26 27 27 28 29 30 31 33 34 35 35 34 34 32 31 30 29 28 27 27 25 23 22 21 20 18 17 19 21 21 21 20 18 18 18 20 20 20 20 19 17 15 14 12 10 9 7
26 25 27 30 32 32 30 30 31 31 30 30 30 29 29 27 26 26 26 25 25 25 27 29 31 32 33 34 35 34 33 32 31 30 29 28 26 25 23 22 20 19 18 19 21 23 22 21 20 20 21 21 21 22 21 20 19 17 15 13 11 10 9
24 22 21 23 27 30 31 31 31 31 31 30 30 29 28 27 25 25 25 25 24 23 23 22 24 26 29 31 33 34 34 33 32 31 30 29 27 27 25 24 21 20 20 20 21 23 24 23 23 22 23 23 23 23 22 21 19 18 16 14 13 12 11
21 20 20 23 26 29 31 32 32 32 31 31 30 29 28 27 26 26 25 24 24 23 22 19 19 21 23 26 29 31 32 32 32 32 31 30 29 29 28 25 22 21 20 21 22 24 25 25 25 24 25 25 24 24 22 21 20 18 17 16 14 14 13
21 21 22 24 24 26 28 29 30 31 31 31 30 29 29 28 28 27 25 24 23 23 23 22 21 21 20 22 24 26 29 31 32 32 32 31 31 31 30 27 24 22 21 22 23 25 26 27 26 26 26 26 26 25 23 21 20 19 18 17 15 14 14
22 21 23 23 23 24 25 27 29 29 30 31 30 30 30 30 30 28 26 25 24 23 23 24 24 23 22 22 22 23 25 28 30 32 32 33 32 32 31 29 26 24 23 23 25 26 27 28 27 27 27 27 27 25 23 22 21 20 19 18 16 15 14
26 24 24 23 21 21 22 25 27 27 27 30 32 32 32 32 31 29 28 27 25 24 23 24 24 24 24 23 23 23 23 24 25 27 29 31 32 32 31 30 27 25 25 25 26 27 28 28 28 28 28 28 27 26 24 23 22 21 20 18 16 15 15
27 27 26 23 20 21 23 23 24 26 26 28 32 33 32 33 32 30 29 27 26 25 24 24 24 24 24 24 23 23 22 23 24 25 26 28 29 30 30 29 28 26 26 26 27 28 29 29 29 29 29 29 28 26 25 24 23 22 21 19 17 16 15
23 24 26 26 24 24 25 25 24 26 27 27 30 32 32 32 32 31 29 28 28 26 24 25 24 25 26 25 24 23 23 24 24 24 25 26 28 29 29 29 29 27 27 27 28 29 29 30 30 30 30 30 29 27 26 24 23 23 21 19 17 16 16
21 21 22 25 26 25 27 28 24 25 27 27 30 32 31 31 31 31 30 29 28 26 25 25 25 26 27 26 25 25 24 26 25 25 25 26 27 28 28 29 29 28 28 28 29 30 30 31 32 32 31 30 29 28 26 25 24 23 21 19 18 17 16
23 22 20 20 22 23 26 27 24 24 27 28 30 31 29 29 30 30 30 29 28 27 25 25 25 27 28 27 27 27 27 27 27 26 26 25 26 27 28 29 29 28 29 30 30 31 31 32 33 33 32 31 29 28 27 26 25 23 22 20 19 18 18
25 25 22 20 21 22 22 24 23 24 27 28 29 30 29 29 29 29 29 29 29 28 26 25 25 26 27 28 29 29 29 30 29 28 27 25 25 26 27 29 29 29 30 31 32 32 32 33 33 34 33 31 31 30 28 27 26 25 23 21 20 19 19
24 26 25 22 22 22 22 22 22 23 27 28 27 28 29 29 30 30 30 29 29 28 26 26 26 27 28 28 30 31 31 31 31 30 28 26 25 25 26 28 29 30 31 32 33 34 34 34 34 34 34 33 32 31 31 30 28 26 24 22 21 21 21
23 26 27 25 23 24 23 21 22 23 26 28 27 27 28 28 29 30 30 30 29 28 26 25 26 27 27 29 31 32 32 32 32 32 31 29 27 25 25 27 29 31 32 32 33 35 35 35 35 36 36 36 34 33 33 33 31 27 25 24 23 22 22
22 23 25 25 24 25 24 21 21 23 25 27 27 25 25 26 27 28 28 28 28 27 26 26 27 28 29 30 31 31 30 32 33 34 34 32 30 27 26 26 29 31 33 33 34 35 36 36 37 38 38 38 37 35 35 35 32 28 26 25 24 24 23
19 20 21 20 21 24 24 22 22 24 24 26 26 25 25 25 25 25 26 27 28 27 26 27 28 29 30 31 30 28 28 32 34 36 37 36 33 30 28 27 28 30 33 34 34 35 37 37 38 39 40 39 38 37 37 36 33 29 28 27 26 25 25
17 19 19 17 19 23 24 23 24 26 26 25 25 26 26 26 25 26 27 27 27 27 27 28 28 28 30 30 28 26 28 31 34 36 38 39 36 34 31 29 29 30 32 34 35 35 37 39 39 40 40 40 39 39 38 37 33 30 29 29 28 27 26
20 20 20 18 18 20 22 21 22 25 28 27 25 26 26 27 28 28 28 28 26 26 27 28 28 27 28 28 28 28 29 31 34 37 39 40 39 37 34 32 31 31 32 34 35 35 38 40 40 41 41 41 40 40 39 37 33 32 31 30 29 28 28
28 24 21 18 17 19 23 24 22 23 27 28 27 26 25 26 27 27 28 29 29 28 29 29 28 27 27 28 29 29 29 31 34 37 39 40 40 40 38 36 34 32 32 33 35 37 38 40 41 42 42 42 42 41 40 37 34 33 33 32 30 30 31
35 30 26 22 20 19 24 29 28 25 26 27 27 27 25 24 25 25 26 29 30 30 30 31 30 28 28 28 29 30 30 32 35 37 38 40 41 42 41 39 37 35 34 34 36 38 38 39 41 42 42 42 43 42 41 38 36 35 34 33 31 31 33
35 35 32 28 24 21 23 29 32 29 27 27 27 26 25 24 25 26 27 29 30 30 31 33 32 30 29 30 30 31 31 33 34 35 37 39 41 43 44 43 40 38 36 36 37 38 39 40 41 42 43 43 43 42 41 39 37 36 34 33 33 34 35
31 33 35 33 29 23 21 25 30 30 29 30 28 27 25 23 23 25 28 29 30 30 31 33 33 31 31 32 31 29 29 30 32 33 34 37 40 43 44 45 43 41 39 39 39 40 41 41 41 42 43 44 43 43 42 41 38 36 35 34 35 36 37
24 26 31 34 32 26 21 21 25 28 29 31 29 26 25 26 26 27 28 28 29 29 30 33 36 35 33 30 27 24 24 25 25 26 28 31 35 39 41 44 45 43 41 41 41 41 41 41 41 42 43 44 43 42 42 41 39 36 35 36 37 38 39
22 20 23 29 30 26 22 22 23 23 25 27 26 24 24 25 28 31 31 29 28 29 31 35 38 36 30 25 22 21 22 22 21 22 25 27 29 33 37 40 43 45 44 43 42 43 43 43 43 43 44 44 43 42 42 41 40 38 37 38 39 40 41
23 21 20 23 25 24 25 25 24 22 21 22 23 24 24 25 27 30 32 32 31 31 33 36 36 31 26 22 21 21 23 23 22 22 25 26 27 29 33 36 40 44 46 46 45 44 44 44 45 45 44 44 43 43 42 42 41 40 40 41 42 42 42
22 22 21 21 23 25 27 28 26 24 22 21 23 25 26 26 26 26 29 32 33 33 32 32 30 27 25 24 23 23 23 24 25 25 24 24 24 26 28 33 37 41 46 48 48 47 46 46 46 46 46 45 45 44 43 43 43 43 43 44 43 44 44
22 22 23 23 24 27 28 29 28 26 24 23 24 25 26 26 26 25 26 28 29 29 29 29 28 27 26 25 25 26 26 26 28 28 26 24 25 24 23 26 31 36 42 47 49 49 49 49 48 48 48 47 47 47 46 45 46 46 47 46 45 45 43
23 23 24 25 27 29 30 30 30 29 28 27 27 27 27 27 27 28 27 27 27 28 31 31 31 30 30 30 30 30 29 29 29 30 29 28 27 25 22 22 26 30 35 42 48 51 52 51 50 49 50 50 50 49 49 48 49 49 49 47 47 46 42
25 25 25 25 27 29 29 30 30 31 30 30 30 31 30 29 29 30 30 29 29 32 35 36 36 36 36 36 35 34 33 33 32 32 32 32 31 30 27 26 28 30 32 36 42 48 52 54 54 52 52 52 52 51 50 51 51 51 50 49 47 45 41
25 25 25 24 23 23 23 24 25 26 27 28 29 30 30 30 30 31 31 31 31 33 35 36 37 38 38 37 38 37 37 36 37 37 37 37 38 37 33 31 33 34 34 34 36 40 45 50 55 56 56 54 53 53 53 52 51 51 50 49 47 44 40
23 23 24 23 22 21 20 20 20 20 21 22 23 25 26 26 28 30 31 32 32 33 33 34 35 36 36 37 38 38 39 39 40 41 41 42 42 42 40 38 38 38 38 38 38 39 40 43 49 55 59 58 56 55 55 54 52 51 50 48 46 43 40
21 21 21 21 21 20 20 20 20 19 19 20 20 21 22 23 25 26 28 30 32 33 34 34 34 34 34 35 36 37 38 39 40 41 43 44 45 45 45 45 44 43 42 42 42 43 44 44 46 51 56 60 61 58 57 56 54 52 50 48 45 41 40
20 19 19 19 19 19 19 19 20 21 21 22 22 23 23 24 24 25 27 28 30 31 32 33 34 35 35 36 37 39 40 41 42 44 45 46 47 48 48 48 48 49 48 47 47 47 48 48 48 49 54 60 61 59 57 55 53 51 50 47 44 41 40
19 18 18 18 17 17 18 18 18 20 21 22 23 24 25 26 27 28 28 28 29 30 31 32 33 35 36 37 38 40 42 44 46 48 49 50 51 51 50 50 51 52 52 52 52 53 52 50 50 51 55 58 55 51 51 49 48 47 46 44 42 41 40
17 17 16 16 15 15 15 16 17 18 19 20 22 23 24 25 27 28 29 30 31 31 32 33 34 35 36 37 39 40 42 44 46 48 49 51 52 53 54 54 55 56 56 56 56 56 56 56 54 54 56 56 49 44 43 42 41 42 44 43 41 40 40
14 14 14 14 15 15 15 15 16 17 18 20 21 22 23 24 25 26 28 29 31 33 35 36 38 39 40 40 41 43 44 45 46 47 48 49 51 53 56 58 59 60 60 60 60 60 60 61 61 59 57 54 50 48 45 42 40 42 43 42 41 41 40
10 11 12 13 15 16 16 16 16 17 18 19 20 21 22 23 24 26 27 29 31 33 35 36 38 39 41 42 44 45 46 47 48 49 49 50 51 54 56 58 60 62 62 63 63 63 63 63 64 64 60 52 45 47 51 48 44 43 43 39 37 39 40

ECMWFFLT1_700_spd_033.txt.gz
Wind_Speed
18 17 18 21 25 29 30 29 30 31 30 26 24 25 29 32 33 33 33 33 33 32 32 32 32 32 31 30 28 27 26 25 25 24 23 23 22 21 19 18 17 16 15 15 16 19 19 19 19 18 18 18 20 22 22 22 21 20 19 18 17 14 12
20 18 19 19 21 25 28 30 30 31 32 31 28 25 26 29 31 33 33 33 33 31 31 32 31 31 31 30 29 29 28 27 26 25 25 24 23 22 21 20 19 17 16 15 15 19 21 22 21 21 21 21 22 23 24 24 23 22 21 19 18 16 14
19 18 19 18 18 19 22 27 30 31 32 32 32 29 27 27 27 29 30 32 32 31 31 32 31 31 30 30 30 30 29 29 28 27 26 25 24 23 22 22 21 20 18 16 16 18 22 24 23 24 24 23 24 25 25 25 25 24 23 21 19 17 15
20 18 17 17 17 16 18 22 27 31 32 32 32 31 29 28 27 26 26 27 29 30 31 31 31 31 31 31 31 31 31 31 30 29 27 26 25 25 25 24 23 22 20 18 17 18 21 24 25 25 26 25 26 27 27 26 26 25 24 23 20 18 17
21 18 17 16 15 15 14 15 20 27 31 33 33 32 30 29 29 28 26 26 25 26 27 28 29 31 31 32 32 33 33 32 32 31 30 28 27 27 27 26 25 23 22 20 19 18 20 23 26 27 27 27 27 28 28 28 27 27 26 24 22 20 18
24 19 17 16 14 14 13 13 16 21 26 31 32 32 31 31 32 31 29 28 27 25 25 26 27 27 27 29 31 33 33 34 34 33 32 31 30 30 30 28 26 25 24 23 22 20 20 22 26 27 27 28 29 30 29 29 28 28 27 25 23 21 19
27 21 17 16 15 15 15 14 14 16 21 26 30 31 32 33 33 31 30 30 29 28 28 27 26 24 23 23 25 27 30 32 34 33 33 32 31 31 31 30 29 28 26 25 24 23 21 22 25 27 28 29 30 31 30 30 30 29 28 27 24 22 20
26 26 23 20 19 18 17 17 16 15 17 21 26 31 33 35 34 33 32 30 29 30 29 28 28 26 23 22 20 21 23 25 28 30 31 32 32 32 32 32 31 31 30 28 26 25 23 23 25 27 29 30 31 31 31 31 31 30 30 28 26 24 22
22 25 26 25 25 25 24 22 20 19 18 18 22 27 31 34 34 33 32 30 30 30 28 27 28 26 25 24 23 21 20 20 22 24 27 29 31 32 32 32 32 32 32 31 28 26 25 25 26 28 29 30 31 32 32 32 32 32 31 30 27 25 23
20 21 24 27 28 27 26 26 25 24 21 19 19 23 28 32 33 33 32 31 30 30 27 27 28 27 26 26 25 24 23 22 21 22 23 25 27 28 30 31 33 34 34 32 30 28 27 27 27 29 30 31 32 33 34 34 33 33 32 31 28 26 24
21 21 21 23 23 22 21 22 23 21 18 17 17 19 24 28 31 32 31 31 30 28 27 28 28 27 26 26 26 26 25 24 23 23 24 24 24 24 25 27 30 32 34 33 31 29 28 29 29 30 31 32 33 34 34 34 34 34 33 32 30 27 25
20 20 19 19 19 18 16 15 16 15 13 14 17 19 22 26 30 30 30 30 29 28 28 29 29 28 27 27 28 28 27 26 25 25 24 25 24 23 23 23 25 28 31 32 31 30 30 31 32 31 31 32 33 34 35 35 35 35 34 33 31 29 27
17 19 18 17 17 17 16 14 14 12 10 12 19 23 24 26 29 31 31 30 29 29 29 29 29 29 29 29 29 30 29 28 27 27 26 25 24 23 23 23 23 25 28 30 31 31 32 33 33 32 32 33 34 35 36 36 36 36 35 34 32 30 28
13 14 15 16 17 17 18 17 16 13 10 10 18 25 26 26 29 30 31 30 30 29 29 29 30 31 31 31 31 32 31 29 29 28 28 27 26 25 25 24 24 24 26 28 31 32 33 34 34 33 34 34 35 36 37 37 37 37 37 36 33 31 29
11 11 13 15 16 17 18 18 18 16 12 9 14 23 26 26 28 30 31 31 30 29 30 31 32 32 32 33 33 34 32 30 30 30 30 29 29 28 27 26 25 25 25 27 29 32 34 34 35 35 35 36 36 37 38 38 38 38 38 37 34 31 30
13 14 14 13 14 15 16 19 20 19 16 13 11 18 24 26 28 31 31 30 30 31 32 33 33 33 34 34 35 34 32 31 31 31 32 32 31 31 30 28 27 26 26 26 28 32 34 35 36 37 37 37 38 38 39 40 38 37 38 37 34 32 31
19 18 18 15 13 13 14 18 22 20 19 16 12 14 21 26 28 30 31 30 30 31 32 34 35 34 35 35 35 34 32 31 32 32 33 33 33 33 32 30 29 29 28 27 27 31 34 36 37 38 39 39 39 40 41 41 39 37 37 38 36 33 32
24 20 19 17 17 14 11 15 21 21 19 18 17 16 19 24 29 30 31 31 30 31 32 34 34 34 34 35 35 34 32 32 33 33 33 34 34 34 34 33 32 31 30 29 28 30 33 37 38 39 40 40 40 41 42 41 40 37 37 38 38 35 34
27 23 20 18 20 19 15 14 17 19 19 18 20 21 20 23 28 29 29 29 29 30 32 32 33 33 34 34 34 34 33 32 32 33 34 35 34 34 34 34 35 35 33 32 30 30 33 37 39 39 40 41 42 42 42 42 41 39 38 38 39 38 37
28 25 22 20 21 23 21 17 15 17 18 16 19 24 24 25 27 29 29 29 29 30 30 29 30 31 32 33 33 33 32 32 32 33 34 33 33 34 34 35 37 38 36 34 33 32 33 36 39 40 40 41 43 43 43 43 42 41 40 39 39 39 39
28 25 23 22 23 25 24 20 16 16 17 17 18 23 27 27 27 28 30 30 29 28 27 26 26 28 29 31 31 31 30 30 30 31 32 32 32 33 35 36 38 39 39 37 36 34 34 35 38 40 41 42 43 44 44 44 44 43 42 41 41 40 41
27 25 22 22 24 26 26 22 19 17 17 20 21 22 26 29 28 28 30 31 30 30 28 27 26 27 29 29 29 29 29 29 29 29 29 29 31 33 34 35 38 39 40 40 38 37 36 36 38 40 42 43 43 44 45 45 44 45 44 44 43 43 43
25 24 22 21 23 27 27 23 21 19 18 21 24 23 24 27 29 28 28 29 29 30 31 32 30 29 30 30 29 28 28 28 27 26 27 29 30 32 33 35 37 38 40 41 41 40 39 38 39 40 42 44 44 45 46 46 45 45 46 46 46 45 45
24 24 22 19 21 26 30 26 23 21 19 21 27 28 26 26 27 27 28 28 27 27 30 33 33 32 31 32 31 29 27 26 25 25 27 28 29 31 33 34 35 36 37 40 42 42 41 41 41 41 42 44 45 45 45 46 47 46 46 47 47 47 47
23 23 20 18 18 23 29 30 27 23 20 21 27 30 31 29 28 27 28 28 27 27 28 29 31 32 33 33 33 30 27 27 26 25 24 22 23 27 30 31 33 34 35 37 38 39 40 42 43 43 43 43 45 46 46 46 47 48 48 48 49 49 48
22 23 21 18 17 19 25 29 29 26 22 21 25 29 31 32 31 30 29 28 28 27 27 26 27 29 32 33 32 31 30 30 29 27 23 21 20 22 23 26 29 31 32 34 33 32 33 36 41 44 46 45 45 47 47 47 48 49 49 49 50 50 50
22 23 22 21 18 17 20 24 27 27 24 22 23 26 28 30 31 32 33 33 32 29 26 27 28 29 29 30 31 32 32 30 27 25 23 22 21 21 21 22 24 27 29 31 31 31 31 32 34 39 45 48 48 47 48 48 48 49 49 49 50 50 51
22 23 24 23 21 18 18 20 22 24 25 24 25 25 24 24 26 27 29 31 31 28 26 27 29 30 30 31 31 32 30 27 26 26 24 23 23 22 22 22 24 26 28 29 31 33 34 35 36 38 44 50 51 49 49 48 48 49 49 50 51 51 51
23 23 24 24 23 20 18 19 21 23 25 26 27 27 26 23 22 23 25 26 26 26 26 26 27 29 31 32 32 29 27 27 28 28 26 24 24 24 24 25 27 29 29 29 31 32 34 35 38 41 45 50 51 51 50 50 49 49 50 50 51 52 53
24 24 24 23 23 21 19 20 22 24 26 28 29 29 28 25 23 23 24 25 25 26 26 27 28 29 30 32 31 28 29 31 32 31 30 29 29 29 28 27 28 30 31 30 30 32 33 34 36 39 42 46 49 50 52 52 51 50 50 51 52 52 53
26 26 25 24 24 23 22 22 23 24 25 27 28 28 27 26 25 25 26 26 26 26 27 28 29 30 30 31 31 30 32 34 34 34 34 34 34 33 31 29 30 31 32 32 32 32 33 34 36 37 37 40 43 45 49 53 54 52 52 52 53 53 55
28 27 26 26 26 25 25 24 24 25 26 26 26 27 27 27 27 28 28 28 27 27 28 28 28 29 29 30 31 32 33 34 34 35 36 36 36 36 35 35 35 34 34 35 36 36 36 37 38 39 39 40 41 42 45 50 54 56 55 55 54 56 58
29 28 27 27 26 26 27 26 27 27 28 29 29 29 29 29 29 29 30 29 28 28 28 28 27 27 28 28 29 30 31 31 31 32 34 35 36 37 38 39 39 39 39 40 41 42 42 41 41 42 43 44 45 45 46 48 50 53 55 58 58 58 60
29 28 26 26 25 26 27 28 29 30 30 31 30 29 29 28 28 28 29 29 28 28 28 28 27 27 27 27 28 29 30 31 32 33 35 36 38 39 40 41 43 44 45 45 47 47 47 47 46 47 48 47 48 49 49 50 51 50 51 58 62 62 62
30 29 27 26 26 27 28 29 30 30 31 31 30 29 28 28 27 28 28 28 28 28 28 29 29 28 28 28 29 29 30 31 33 34 36 38 39 40 41 42 44 45 46 47 49 50 51 51 50 51 52 52 51 51 52 55 56 53 51 56 62 65 65
30 29 28 27 27 27 28 28 28 28 28 28 28 28 27 27 27 27 28 28 28 28 29 29 30 30 30 31 31 32 33 34 35 36 38 39 40 42 43 43 44 46 47 48 49 50 52 53 54 55 56 57 57 56 57 57 57 56 55 56 59 63 65
27 26 24 24 24 25 26 27 27 27 26 26 26 26 26 25 26 26 27 28 28 29 30 30 31 32 32 33 34 35 36 37 39 40 42 43 44 45 45 46 47 48 49 50 51 52 53 55 57 58 58 60 61 61 62 61 58 57 57 54 52 55 60
24 22 20 20 21 22 23 24 24 24 25 24 25 25 26 26 26 26 27 28 28 29 30 31 32 33 34 34 36 37 38 39 41 43 44 45 46 47 47 48 49 49 50 51 53 55 56 58 60 60 59 61 62 62 63 63 61 61 61 55 50 51 55

ECMWFFLT1_700_spd_036.txt.gz
Wind_Speed
22 19 14 12 14 18 22 26 27 27 27 27 25 23 24 28 31 31 31 32 33 34 34 34 33 33 33 32 30 29 28 27 26 25 24 23 22 21 19 18 18 17 17 16 14 13 13 14 16 17 18 20 19 19 21 23 24 24 22 20 19 17 15
25 21 16 13 14 16 19 24 26 27 27 27 27 25 24 26 29 31 31 31 32 33 34 34 33 33 33 32 31 30 29 28 27 26 25 24 23 21 20 20 19 18 18 17 16 15 15 16 18 19 20 21 21 21 23 25 26 25 24 23 21 19 17
27 23 18 14 15 16 18 21 25 27 28 28 28 28 26 24 25 28 30 30 31 32 33 34 34 33 33 33 32 31 30 29 28 27 26 25 24 23 22 22 21 20 20 19 18 17 17 18 18 20 22 23 23 23 24 26 27 27 26 25 24 22 19
24 22 18 15 15 17 18 19 21 25 27 28 28 29 28 25 22 23 26 28 30 31 33 33 33 33 33 33 33 32 31 30 29 28 27 25 25 24 25 24 23 23 22 21 20 19 19 18 18 20 23 24 25 26 26 27 29 29 28 27 26 24 21
22 23 20 17 17 19 19 18 18 20 24 26 27 27 29 28 25 22 21 23 26 29 31 32 32 33 33 33 33 32 32 31 30 29 28 27 27 27 27 26 25 24 23 22 22 21 20 19 19 19 21 24 26 27 28 29 30 30 30 28 27 25 24
21 23 20 18 18 17 16 15 15 17 21 25 27 28 29 30 29 26 23 22 23 26 29 31 32 32 33 33 32 32 32 32 31 31 29 29 29 28 28 27 27 26 26 25 24 23 22 21 20 20 20 23 26 27 29 30 31 32 31 30 29 27 26
20 22 20 18 17 16 13 12 12 14 19 23 28 30 31 31 31 30 28 25 23 24 25 27 29 29 30 31 31 31 32 32 31 31 31 30 30 30 29 28 28 29 29 28 26 25 24 23 22 21 20 22 25 27 29 32 32 33 33 32 30 29 28
17 21 22 20 19 17 14 14 13 13 16 20 25 29 31 32 33 32 31 29 26 26 24 24 25 25 26 27 28 29 29 31 31 31 31 31 31 32 31 30 30 30 31 31 29 27 26 25 24 23 22 23 25 27 29 32 34 34 34 33 31 30 29
16 20 22 23 23 21 18 17 16 16 15 16 19 23 28 32 34 34 33 32 31 29 27 25 24 23 23 24 24 24 25 28 30 31 32 33 33 33 32 32 32 31 32 32 31 30 28 27 25 25 24 24 25 26 29 32 35 35 35 34 33 32 31
15 17 20 22 23 24 23 21 20 20 18 15 14 17 22 28 32 34 34 34 34 32 29 27 26 25 24 24 23 23 23 24 25 27 29 30 32 32 33 33 32 32 32 33 33 32 31 29 28 27 27 26 27 27 28 32 35 36 36 35 34 33 32
15 15 16 19 22 23 24 24 24 23 23 20 18 18 19 22 27 32 34 35 35 33 31 31 30 28 26 25 25 25 25 24 24 24 25 26 27 29 29 31 32 32 33 33 34 34 33 32 31 29 29 29 28 28 28 31 35 37 37 35 34 34 34
13 13 13 15 17 18 19 20 21 22 21 20 20 21 22 22 24 29 33 35 35 34 34 34 33 31 28 27 27 27 27 27 26 25 24 23 24 24 25 26 28 29 31 32 34 35 34 33 32 32 31 30 30 29 29 30 34 37 38 36 36 35 35
10 12 12 12 12 12 12 13 15 16 15 14 16 21 24 25 27 29 32 34 35 35 35 35 35 33 31 29 28 29 29 29 28 27 26 25 24 24 23 22 23 24 26 27 31 33 34 34 34 33 33 32 32 31 30 30 34 37 38 38 37 37 36
7 8 11 11 10 10 10 11 13 15 14 13 14 19 24 28 29 31 32 33 35 36 36 36 36 35 33 31 31 31 31 30 29 28 27 27 26 25 24 22 22 22 23 23 26 28 30 31 33 34 34 34 33 33 31 31 33 37 38 38 38 38 38
5 6 10 11 11 10 9 10 11 13 15 14 13 16 22 27 29 30 32 33 35 37 37 37 37 36 34 33 33 33 32 31 30 30 29 29 28 26 25 25 24 23 23 23 23 24 26 27 29 32 35 35 35 34 33 32 34 37 38 38 39 39 39
6 8 11 11 10 10 9 8 9 9 12 13 13 14 19 24 27 27 29 31 34 36 37 37 37 36 35 35 34 34 34 33 32 31 31 31 30 28 27 26 26 26 25 24 23 24 24 25 27 30 33 35 36 36 35 34 34 36 37 38 39 40 40
10 11 13 11 11 12 10 9 10 9 8 8 10 13 16 21 24 25 27 29 32 35 37 38 38 37 36 36 35 35 35 34 34 33 33 33 32 30 29 29 29 29 28 27 26 25 25 25 26 28 31 35 36 37 37 35 34 36 37 38 39 40 40
15 15 15 14 15 15 11 11 13 12 10 8 8 10 14 19 24 25 25 26 29 33 36 37 37 37 37 37 37 38 37 36 36 36 35 35 34 32 31 31 31 32 32 30 28 27 26 27 27 27 29 33 35 37 38 37 35 35 37 38 39 40 41
20 19 19 18 18 16 14 13 14 15 14 11 9 10 12 18 24 26 25 25 28 32 35 36 35 36 36 38 38 39 38 38 38 37 37 36 35 34 33 33 33 34 34 33 31 29 29 30 29 28 29 31 34 37 38 38 36 35 36 38 39 41 42
21 21 21 20 19 17 16 15 16 18 17 14 12 12 12 16 22 26 27 28 30 32 33 33 35 35 35 37 38 38 38 38 37 37 37 37 36 36 35 34 34 35 35 35 35 33 32 32 32 31 30 31 33 36 38 39 37 35 36 38 40 41 42
19 18 18 18 18 18 18 18 19 20 20 17 15 15 15 16 19 25 30 30 29 30 32 32 33 34 34 35 36 37 37 37 36 37 38 38 38 38 36 35 35 35 36 37 37 36 36 36 35 34 33 33 33 35 37 38 38 37 36 38 40 42 43
18 16 17 17 17 18 19 20 22 23 22 20 18 16 17 18 18 21 28 31 30 30 32 33 33 33 33 33 34 35 36 36 36 37 38 39 39 38 37 36 36 35 36 37 38 39 39 39 38 36 35 35 35 36 36 37 37 38 37 38 40 42 45
19 17 17 18 18 17 18 20 23 25 24 23 20 18 19 20 19 18 23 30 31 29 31 33 33 33 33 33 33 34 36 36 37 37 38 39 39 38 37 36 35 35 36 37 39 40 40 41 41 39 37 37 37 37 37 36 36 37 38 38 40 43 45
20 18 18 18 18 17 17 19 23 26 26 25 23 21 21 22 21 19 20 25 30 32 32 33 32 32 32 32 32 33 35 36 36 36 37 37 37 36 35 35 34 34 35 37 39 40 41 42 42 41 39 38 38 38 38 37 37 37 38 39 40 43 45
18 17 17 18 18 17 17 18 22 27 28 27 24 23 22 22 23 22 20 20 26 32 33 32 31 32 32 31 32 33 34 34 33 33 34 35 35 34 33 32 33 34 35 37 38 39 40 41 42 41 40 39 38 39 40 40 40 39 40 41 43 44 46
17 17 17 18 18 18 17 17 20 25 29 29 26 24 23 24 25 25 23 21 23 27 29 31 33 34 34 34 34 34 34 32 31 31 33 33 33 33 31 29 29 31 34 36 38 39 40 40 40 40 40 39 40 40 41 41 42 42 42 42 44 46 47
19 18 18 19 19 18 18 17 17 22 26 29 29 26 24 23 26 28 27 24 23 23 25 28 31 32 33 34 35 36 35 35 34 35 35 34 33 32 32 31 30 30 31 33 35 37 37 37 39 39 39 40 40 40 39 39 41 43 43 43 43 46 49
23 21 19 20 21 20 19 17 16 18 23 26 29 29 25 23 25 29 30 27 25 25 26 27 28 28 28 30 32 35 37 38 38 37 37 35 35 35 34 33 33 33 32 31 32 32 33 35 37 38 38 39 39 38 38 37 39 41 42 42 43 46 49
26 24 21 20 22 22 21 19 17 17 19 22 26 28 27 24 23 27 30 29 27 28 30 31 31 31 30 30 30 32 35 38 39 39 38 37 38 38 36 34 34 34 33 32 32 32 33 35 36 37 38 38 38 38 38 38 39 40 39 40 44 46 48
29 26 23 21 21 22 23 22 20 18 17 19 22 24 25 24 23 25 26 27 27 28 30 32 33 33 33 32 31 31 33 35 37 39 39 38 38 38 36 34 34 34 33 33 34 34 36 37 38 39 39 39 39 40 40 41 41 42 41 43 46 46 46
30 29 25 23 22 21 22 23 22 20 18 18 19 21 22 23 24 26 26 25 25 25 26 27 28 29 29 29 29 30 32 33 34 35 36 37 36 36 35 35 36 36 36 36 37 38 38 39 39 40 40 40 40 41 42 43 44 44 44 45 46 46 46
31 30 26 24 22 22 21 22 23 22 21 20 19 19 19 21 24 27 28 27 26 25 24 24 24 24 25 25 26 27 29 31 33 33 35 35 35 36 37 39 40 39 39 39 39 39 38 38 39 40 40 41 41 41 42 43 43 43 43 43 43 43 44
30 29 26 24 23 23 22 22 23 23 23 23 22 19 19 21 23 25 27 28 27 26 25 24 23 24 24 25 25 26 27 29 30 32 34 35 36 38 40 41 41 40 39 39 38 37 37 38 39 40 41 42 42 43 43 43 43 43 43 43 43 43 43
27 26 25 25 25 25 24 24 24 25 24 24 24 23 22 21 22 23 24 24 25 25 26 26 25 25 26 26 26 27 27 27 28 30 32 35 37 38 39 39 38 37 37 37 37 37 39 40 41 42 44 45 46 47 47 47 47 46 46 48 49 48 47
25 25 26 26 27 27 27 27 27 27 27 26 25 25 24 24 24 24 24 24 25 25 26 27 28 28 27 27 28 28 28 27 27 28 30 32 34 35 35 35 36 36 36 37 38 40 42 44 45 46 46 48 50 52 53 54 53 50 50 53 55 54 53
26 27 27 29 29 29 29 29 29 29 29 28 27 27 27 27 27 27 26 26 25 25 25 26 27 27 27 27 27 27 27 27 27 27 28 29 30 31 32 34 35 36 37 39 40 41 43 44 45 45 47 49 51 53 54 55 55 54 54 57 59 59 58
29 30 31 32 31 31 31 30 30 30 30 30 29 28 28 28 29 28 28 28 27 27 26 26 26 26 26 26 26 26 26 26 27 27 28 28 30 31 32 33 35 36 38 40 41 43 44 46 47 48 49 50 51 52 53 53 53 53 55 57 60 62 62
32 33 33 33 33 33 32 31 31 30 30 29 29 28 28 28 28 28 28 28 28 27 27 26 26 26 26 26 26 27 28 28 29 29 30 31 32 33 34 35 37 38 40 42 43 45 46 48 49 50 50 51 53 54 54 54 53 54 56 58 61 62 63

ECMWFFLT1_700_spd_039.txt.gz
Wind_Speed
26 23 23 23 18 16 23 28 27 23 23 23 23 22 21 21 21 23 25 27 30 32 32 33 33 33 33 31 30 29 29 29 27 25 23 22 22 21 20 19 17 16 15 13 12 11 10 11 13 15 16 18 20 21 21 20 20 21 21 20 19 17 17
31 24 23 25 21 16 22 27 26 24 22 22 22 23 23 22 22 23 25 26 27 30 31 32 33 33 33 31 31 30 30 30 28 26 25 24 22 21 20 19 18 17 16 14 13 12 11 12 13 15 16 18 20 21 21 21 21 22 22 22 21 19 18
31 26 24 27 23 16 19 24 25 23 22 21 22 23 24 23 21 21 23 25 26 27 30 32 33 33 33 32 31 31 30 30 30 28 26 24 23 22 21 20 20 18 17 17 16 14 13 13 13 14 16 18 20 21 22 22 22 23 24 24 23 22 20
29 27 26 27 24 17 17 20 22 23 22 21 22 23 24 23 21 19 19 22 25 27 28 30 31 32 32 32 31 31 31 30 30 29 27 26 25 24 24 22 21 20 19 18 18 17 16 15 14 14 15 18 20 22 22 22 22 24 25 25 25 25 23
28 27 27 27 25 21 19 18 20 21 21 21 21 22 24 23 23 21 18 18 22 25 26 27 29 31 31 31 31 31 31 30 30 29 28 28 27 26 26 24 23 22 21 20 20 20 19 18 16 15 15 16 19 22 23 23 24 25 26 27 27 27 25
29 29 28 27 25 24 20 17 18 18 18 19 21 23 25 25 25 24 21 18 19 22 25 27 28 30 30 30 31 31 31 31 31 30 30 30 29 28 27 26 25 24 23 23 22 22 21 20 19 18 17 16 17 20 23 24 26 26 28 29 29 29 28
27 27 27 28 27 23 18 17 19 18 17 18 21 23 25 27 26 26 24 22 19 20 24 27 28 29 30 30 31 31 31 31 31 31 31 31 30 29 28 28 28 26 25 25 25 24 24 23 21 20 20 19 18 19 21 23 25 27 29 30 31 30 30
25 25 25 28 28 22 18 18 18 18 17 18 21 23 24 27 28 28 26 25 22 21 22 24 25 26 27 29 30 30 30 31 31 31 31 32 31 31 30 30 29 28 28 27 26 26 26 25 24 23 22 22 21 21 21 22 24 27 29 31 31 31 31
23 24 23 23 24 22 20 19 18 18 16 16 19 22 23 26 29 29 28 27 26 25 23 22 23 23 24 26 27 28 29 30 31 32 32 32 32 32 31 31 30 29 30 29 28 28 28 27 26 26 25 25 24 24 23 22 22 25 29 31 32 33 33
20 23 23 22 21 21 21 21 21 19 16 13 14 18 20 22 26 29 30 29 28 27 25 23 23 23 23 24 25 25 27 29 30 31 31 32 32 31 31 31 31 31 31 30 31 31 30 30 29 29 28 28 27 26 25 24 23 23 27 30 32 33 34
18 21 24 23 20 21 23 25 24 21 19 16 13 14 17 19 22 26 29 30 29 28 28 27 25 23 22 23 24 25 25 26 27 28 29 30 30 30 31 31 32 32 32 32 32 33 33 32 32 32 31 30 29 28 27 26 24 23 25 29 32 34 35
18 19 19 17 17 19 21 23 24 22 20 18 15 15 17 18 20 23 27 29 31 31 31 30 29 27 24 24 25 25 25 25 26 26 27 27 28 29 30 31 32 33 33 32 33 34 34 33 32 33 33 32 31 30 29 28 27 25 25 27 30 33 35
17 17 15 13 14 16 17 18 20 19 18 16 15 15 17 19 21 23 25 28 31 34 34 33 33 31 28 26 26 26 26 25 25 25 24 24 25 27 28 29 30 31 31 30 31 32 34 34 32 32 33 33 31 31 31 30 29 28 26 26 29 32 35
11 12 14 13 14 15 16 17 17 18 17 16 15 15 16 18 22 24 26 27 31 36 38 36 36 35 32 29 28 27 26 26 25 24 23 23 23 24 25 25 25 26 27 26 26 28 30 32 31 30 31 33 32 31 32 31 31 30 29 27 28 31 34
8 9 12 13 15 16 17 18 18 19 18 17 16 15 14 16 20 24 28 30 33 37 39 40 39 38 36 33 31 29 28 27 26 25 25 24 24 24 24 24 23 23 24 23 22 22 24 27 28 26 26 29 31 32 32 33 33 32 31 29 28 30 32
6 8 10 10 12 15 16 17 18 19 19 19 18 17 15 15 17 22 28 33 34 35 38 41 40 39 39 36 33 32 30 29 28 27 26 26 25 25 25 25 25 25 25 25 22 21 21 23 25 24 22 23 26 29 31 32 33 32 32 31 29 29 31
6 8 10 9 9 11 14 17 18 18 19 20 19 18 17 16 17 20 26 32 35 34 36 40 39 39 39 38 36 34 33 31 30 28 28 28 28 28 27 27 28 28 28 28 26 23 23 23 25 25 23 22 22 25 27 29 30 31 32 32 31 30 31
7 8 10 11 9 8 10 13 15 17 19 20 20 19 18 17 17 19 23 29 34 36 36 38 37 36 37 38 38 37 35 33 32 31 30 30 30 30 29 29 30 30 31 31 29 27 26 25 26 27 27 25 23 23 24 25 26 28 30 31 32 31 31
9 7 8 10 10 10 9 10 12 16 19 21 21 21 20 18 16 17 19 26 33 36 35 34 34 34 35 38 39 38 36 35 34 33 32 32 32 32 32 31 31 32 32 32 32 31 29 27 27 28 29 29 27 25 24 24 24 25 28 30 32 32 32
12 11 10 11 12 12 12 14 15 17 20 21 22 22 21 19 17 15 16 22 29 33 33 32 33 33 33 35 37 37 36 36 35 34 34 34 34 34 34 33 32 33 33 33 33 33 31 30 30 29 29 31 31 30 27 26 26 26 26 28 30 32 33
17 17 16 14 14 15 17 17 17 18 20 22 23 22 21 20 18 16 15 18 24 29 31 31 32 31 30 32 35 36 36 36 35 34 35 35 36 36 35 34 33 34 34 34 34 33 33 33 33 32 31 31 33 34 32 30 28 28 27 27 29 31 34
17 17 17 17 19 21 20 19 19 20 22 23 24 24 22 20 18 15 14 16 21 26 29 30 31 30 28 29 32 34 35 35 34 34 35 35 36 36 35 35 34 34 35 35 35 34 34 34 34 35 35 34 34 35 36 34 32 31 30 29 29 31 34
14 15 18 23 26 24 22 21 22 22 22 23 25 25 24 21 18 16 14 15 19 23 28 30 31 29 27 26 28 31 32 33 33 34 34 35 35 35 35 35 35 35 36 36 35 35 35 35 36 36 36 37 36 36 37 37 36 34 32 31 30 31 33
16 19 22 26 27 25 25 24 23 23 23 24 25 25 25 23 20 17 15 15 18 21 26 29 30 30 28 26 27 29 30 31 32 33 34 34 34 34 35 35 35 36 36 36 36 36 36 37 38 38 38 39 39 39 39 38 37 36 34 34 34 34 34
20 21 21 23 24 25 25 24 24 24 24 24 26 26 26 25 22 19 17 16 17 20 24 27 30 32 31 29 29 29 29 30 31 32 33 33 33 33 34 35 36 37 37 37 37 38 39 39 40 40 40 40 40 40 41 40 39 37 36 37 37 37 37
22 20 19 22 23 22 22 23 23 24 24 25 27 27 27 27 24 22 20 18 18 20 22 25 28 32 34 34 32 31 30 30 31 32 32 32 33 34 36 37 38 38 39 39 39 40 40 40 41 41 41 41 41 41 42 41 40 38 37 37 38 38 39
22 21 21 21 21 20 21 22 22 22 23 24 26 28 30 29 27 25 23 21 21 21 22 23 26 30 34 36 35 33 32 31 31 32 34 35 36 37 37 38 39 39 40 40 40 41 41 41 42 42 42 42 42 42 41 40 40 38 36 35 36 37 39
23 23 22 22 21 20 21 22 22 23 23 22 23 27 31 31 30 27 25 23 23 22 23 24 24 27 33 36 37 36 34 33 33 33 36 37 38 39 39 39 40 40 40 40 40 41 41 41 42 43 43 42 41 40 38 36 37 37 35 35 35 36 38
24 24 24 24 23 21 21 22 23 24 23 22 22 25 28 32 33 30 27 25 25 25 25 25 24 25 29 35 38 38 37 35 35 36 38 39 39 40 40 40 40 40 40 40 41 42 42 42 42 43 42 41 39 38 36 35 36 37 36 35 35 35 36
25 25 25 26 25 23 22 23 24 25 24 23 22 23 26 29 32 33 30 28 27 27 27 27 26 25 26 31 38 40 39 38 38 39 40 40 41 42 41 40 40 40 40 41 42 43 43 43 43 43 43 42 41 40 39 39 40 40 39 36 35 36 36
26 26 27 28 28 25 24 24 24 26 26 24 22 22 23 25 28 32 32 30 27 27 28 28 27 26 26 29 35 38 39 39 39 40 42 42 42 43 43 43 42 42 42 42 43 44 44 44 44 44 45 44 43 43 42 43 44 44 42 39 38 38 39
26 27 28 29 29 28 27 26 25 26 27 25 23 22 22 22 24 27 30 29 27 26 26 27 26 26 27 30 34 36 37 38 39 40 41 42 42 43 44 46 46 45 45 44 44 44 44 44 45 46 47 46 45 44 44 45 46 44 43 42 41 41 41
25 27 28 29 29 29 29 28 26 26 27 27 26 24 22 21 21 22 24 26 27 26 25 25 25 25 26 28 31 34 35 36 37 39 39 40 41 42 43 46 47 47 47 47 47 46 45 46 47 47 47 46 45 45 45 45 44 43 43 44 44 44 43
23 25 27 29 30 30 30 30 28 27 28 28 26 24 23 22 20 19 19 21 24 25 24 24 24 24 24 25 26 27 28 30 31 33 35 37 39 41 42 44 46 47 48 48 48 47 47 47 47 45 44 44 44 44 44 44 43 43 43 44 45 46 46
23 24 26 28 29 30 30 30 30 29 28 27 26 24 23 23 22 20 18 18 19 21 23 24 24 25 25 25 25 25 25 25 26 27 29 31 34 37 40 42 43 45 46 46 46 46 46 46 45 43 42 42 43 43 44 45 44 44 46 47 48 50 51
25 25 25 26 27 29 29 29 30 30 28 26 25 25 24 24 23 22 20 19 19 19 20 22 23 23 24 25 25 25 24 24 24 25 26 27 29 32 35 37 39 41 43 43 42 41 41 40 40 40 40 41 42 43 44 46 46 46 47 48 49 51 53
29 28 26 26 27 28 28 28 28 28 26 25 25 26 26 26 25 24 23 22 21 21 21 22 23 23 24 24 24 23 23 24 24 24 24 25 28 29 30 31 33 35 36 36 35 35 35 36 36 37 38 40 41 43 44 46 47 47 47 48 48 50 51
31 30 28 26 27 28 28 28 27 26 26 26 26 27 28 28 28 27 25 24 23 23 23 23 24 24 24 25 24 24 24 25 25 24 24 25 26 27 27 27 29 30 30 31 32 33 34 35 37 38 39 41 43 44 45 46 47 47 48 48 49 50 51

ECMWFFLT1_700_spd_042.txt.gz
Wind_Speed
35 34 34 31 26 21 18 20 26 28 25 25 28 30 29 24 19 17 17 20 23 25 26 26 26 27 27 27 27 26 26 25 24 23 21 20 19 18 18 17 15 14 12 11 10 8 8 9 11 12 12 14 15 16 18 19 18 18 17 16 16 15 13
32 33 32 28 24 22 20 21 26 28 28 29 31 33 32 26 20 18 17 19 22 24 25 26 27 28 28 28 28 27 26 26 25 24 23 21 20 19 18 17 15 14 13 11 10 9 9 10 10 10 10 12 14 15 16 18 19 19 18 17 17 16 15
33 31 31 28 26 24 22 22 22 25 30 31 32 33 31 25 20 17 15 16 20 23 25 26 26 27 28 28 29 28 27 27 25 24 23 22 21 20 19 18 16 15 14 13 12 11 11 11 10 10 10 10 13 14 15 16 18 19 19 18 18 18 17
37 32 32 31 30 27 23 22 20 19 25 31 34 31 26 23 20 17 14 13 16 21 24 25 26 26 27 28 29 29 28 27 25 24 23 23 22 22 21 19 18 17 15 14 13 13 13 12 12 12 11 10 11 13 14 15 16 18 18 19 19 19 18
40 36 33 33 34 31 25 23 21 17 21 30 35 32 27 25 22 19 16 13 14 17 20 23 24 25 27 28 29 29 28 27 25 24 24 24 24 24 23 21 20 19 18 16 16 15 15 14 13 13 12 11 11 12 14 14 15 17 19 19 20 20 20
39 36 31 32 36 35 28 25 24 21 23 29 33 32 29 27 24 20 18 15 14 15 18 21 24 25 26 27 28 28 28 27 27 26 25 25 26 26 24 22 21 20 19 18 18 18 17 17 15 14 14 13 12 12 13 14 15 16 19 20 20 22 22
34 32 29 31 36 34 27 23 22 21 22 28 31 32 30 28 25 22 20 18 16 16 18 21 23 24 25 25 26 27 28 28 27 27 27 27 27 26 24 23 23 22 21 21 21 20 20 19 17 16 15 15 15 15 14 14 14 15 18 20 21 22 23
31 32 30 32 36 34 26 22 21 20 21 24 28 31 29 28 27 24 21 20 18 18 19 20 22 22 23 24 26 27 28 28 28 27 27 28 28 27 25 25 24 23 23 23 22 22 21 21 20 19 18 17 17 17 17 16 15 15 16 18 20 22 24
32 35 31 31 35 33 27 25 24 23 22 20 23 28 28 27 27 25 22 21 20 21 20 19 20 21 21 23 25 27 27 27 28 28 28 28 28 27 27 26 25 25 25 24 24 23 23 22 22 22 21 20 19 19 20 20 18 16 16 17 18 21 24
31 35 32 30 31 31 30 28 25 25 23 20 22 26 24 23 24 24 24 23 21 21 21 20 20 20 21 23 24 26 27 28 28 28 29 29 28 28 27 26 26 26 26 26 25 25 25 24 24 24 24 24 23 21 21 21 21 19 18 17 17 19 22
30 33 31 28 31 32 32 29 25 24 23 20 23 25 22 20 22 23 24 24 23 22 22 22 21 21 21 22 23 25 26 28 29 29 29 29 28 27 27 27 27 27 27 28 27 27 26 26 26 26 26 25 25 24 23 23 23 22 21 20 19 18 20
30 32 30 29 35 36 31 28 26 25 23 20 20 22 21 20 21 21 21 23 24 24 24 24 24 22 21 21 23 25 26 27 28 29 29 29 29 28 27 27 28 28 28 28 28 28 28 28 28 27 27 27 26 26 26 25 25 24 23 22 21 20 20
29 30 28 27 30 29 25 26 28 28 25 18 15 17 18 18 19 19 19 20 23 25 25 25 26 25 23 22 23 25 25 25 26 27 27 27 28 28 27 27 27 28 28 28 28 28 29 29 28 28 28 28 27 28 28 28 27 27 26 24 23 23 22
29 31 31 29 28 27 24 22 25 27 25 19 16 18 19 18 18 18 18 19 21 24 26 27 28 28 27 25 24 25 25 24 24 25 25 25 25 26 27 26 26 27 27 27 26 27 28 29 29 28 27 28 28 28 29 29 29 28 27 26 25 25 24
27 28 27 27 27 29 27 23 24 28 26 21 19 20 20 19 18 18 18 20 21 22 25 27 29 31 31 28 27 26 24 23 24 24 23 23 24 25 26 25 25 26 26 26 24 24 25 26 28 28 25 24 24 26 27 29 29 28 27 27 26 26 26
15 17 17 18 20 23 23 24 26 27 24 23 21 21 21 20 19 19 19 20 21 22 25 27 29 31 32 31 29 28 26 25 24 24 24 23 23 23 24 24 24 24 24 24 23 21 20 21 25 26 23 19 18 20 22 24 24 23 24 25 26 27 27
9 10 12 13 16 20 21 21 23 22 22 23 22 21 22 21 19 19 19 20 21 23 26 28 28 27 29 31 31 31 30 28 26 26 25 24 23 22 23 23 23 23 23 22 22 21 19 18 21 23 22 18 15 16 18 18 18 18 18 21 23 25 27
12 12 12 12 14 17 19 20 19 19 19 21 22 22 22 21 20 20 19 19 19 21 24 26 26 24 25 28 31 32 32 32 30 28 27 26 25 23 23 23 23 23 23 23 23 22 21 20 20 21 22 21 18 16 16 16 16 16 16 17 19 22 25
13 13 11 12 12 11 11 14 15 15 16 18 20 22 21 21 20 19 18 19 19 19 20 22 24 25 23 24 27 29 31 34 33 32 30 28 27 26 25 25 25 25 25 25 24 24 23 22 21 21 23 24 23 19 17 16 17 18 18 18 18 19 22
11 10 9 12 15 12 10 13 13 13 16 18 18 19 20 21 20 18 17 18 18 19 19 20 22 24 23 21 22 24 28 32 34 34 33 31 30 29 28 27 27 27 27 26 26 26 26 25 24 23 23 24 25 24 22 19 18 18 19 19 20 20 21
11 12 11 13 16 17 17 18 16 14 16 17 16 17 19 21 21 19 18 18 18 19 20 20 21 23 23 21 20 21 24 28 32 35 34 34 33 32 30 29 28 28 28 28 28 28 28 27 26 26 25 25 26 27 26 24 22 21 19 19 20 21 22
11 13 12 12 15 18 19 19 17 16 18 16 15 17 19 20 21 20 18 18 17 18 20 21 22 22 22 20 20 21 21 23 28 33 35 35 35 34 32 30 30 30 29 29 30 29 29 29 28 28 28 27 27 28 28 27 27 26 24 22 21 22 24
11 12 14 18 22 24 22 19 16 17 18 16 15 17 18 19 20 20 19 18 18 19 20 22 22 21 19 18 19 21 21 21 23 29 34 36 35 34 33 32 31 31 30 31 31 31 30 30 30 29 29 29 29 28 28 28 29 29 28 28 27 27 27
16 16 19 22 24 24 22 20 18 19 18 17 17 18 19 19 20 20 20 19 18 19 21 22 23 21 18 17 18 20 21 20 21 25 30 34 34 34 33 33 33 32 32 32 32 32 32 31 31 31 31 30 30 29 28 29 31 31 31 31 32 32 32
18 18 20 23 24 21 18 19 22 22 20 19 20 20 21 21 21 21 21 20 19 20 21 21 22 22 20 19 19 20 21 20 20 23 26 30 33 33 33 34 34 34 34 34 34 35 35 34 33 32 32 32 32 31 31 31 33 34 34 35 35 36 37
19 19 20 22 22 18 17 20 22 22 22 23 23 22 23 24 24 23 23 22 21 21 20 20 20 21 20 20 20 22 22 22 22 23 24 27 31 33 33 34 35 35 35 36 36 37 37 37 36 35 34 34 34 34 34 34 35 37 37 38 39 40 40
20 21 22 22 20 18 18 20 21 23 25 26 25 24 25 26 26 26 25 25 24 22 20 21 21 20 20 19 20 22 23 23 23 24 25 27 30 32 33 33 34 35 36 37 38 39 40 40 40 39 37 37 36 36 36 37 38 39 39 39 40 42 43
21 21 23 23 22 20 19 18 20 23 25 27 26 26 27 27 28 28 28 28 27 23 22 22 22 21 20 20 20 22 23 25 25 26 28 30 31 31 32 33 35 35 37 38 40 41 42 42 42 42 41 39 38 38 38 39 41 41 39 39 41 43 45
22 21 21 23 24 22 19 20 22 23 24 26 25 25 26 27 27 28 29 30 29 27 25 24 24 23 22 21 21 22 24 26 27 29 31 31 32 33 34 35 36 36 37 38 40 41 42 42 42 42 42 41 41 41 41 42 43 42 40 40 41 43 45
25 25 24 25 26 23 21 22 23 23 23 25 25 25 27 26 26 26 27 29 30 30 29 27 25 24 23 23 22 23 25 27 29 32 34 34 34 36 37 37 37 37 38 38 40 41 42 42 42 43 43 44 44 44 45 45 45 45 44 43 44 45 45
29 29 28 27 27 24 22 23 24 23 23 24 25 27 27 27 26 26 26 28 29 30 30 30 28 25 24 25 24 24 25 27 28 31 35 37 38 39 39 40 40 40 40 41 41 42 43 43 44 44 45 45 46 46 47 48 48 48 47 47 47 47 46
29 29 28 27 26 24 23 24 25 25 24 24 25 27 28 28 28 26 26 27 28 28 29 30 30 28 25 25 25 26 26 27 28 30 34 37 40 41 42 43 43 43 44 44 45 45 46 46 46 46 47 47 47 48 49 49 49 49 49 49 49 48 47
26 25 25 25 25 25 25 25 26 26 26 25 24 25 27 29 29 27 26 26 26 26 27 29 30 29 26 25 26 27 28 29 30 31 32 36 40 42 44 45 46 46 47 47 47 47 47 48 48 49 48 48 48 49 50 50 49 48 48 49 49 48 47
21 21 21 22 23 25 25 26 26 28 28 27 24 24 26 29 29 28 26 25 24 25 26 28 30 29 28 27 26 27 29 31 32 33 34 36 39 41 44 46 47 47 47 47 48 48 48 49 49 49 48 48 49 49 50 50 49 49 48 48 47 46 45
17 18 18 19 20 22 24 26 27 27 28 28 27 26 26 28 29 28 24 22 21 22 23 25 28 29 29 27 26 27 28 30 32 33 34 35 37 39 41 44 44 45 45 45 46 46 47 48 48 48 49 49 48 48 47 47 47 47 46 45 44 44 44
16 17 17 17 18 19 21 23 26 27 26 26 27 27 26 26 28 28 25 22 20 20 20 21 24 26 27 27 26 25 26 27 28 29 30 31 32 33 34 35 36 37 37 38 39 41 42 44 45 46 47 46 45 44 43 43 43 43 43 42 42 42 43
16 17 18 18 18 19 19 20 23 25 25 25 26 27 27 26 27 28 26 23 22 21 20 19 20 21 23 23 23 23 24 24 25 25 26 27 28 28 28 27 28 29 30 31 33 34 35 37 38 38 39 40 39 39 38 38 38 37 37 38 39 39 40
19 20 21 21 22 22 22 21 21 23 24 24 25 26 27 27 26 26 25 23 23 22 22 21 20 20 20 20 21 21 22 22 23 23 24 25 26 26 25 25 26 27 27 28 28 29 30 31 32 32 32 33 33 33 33 34 34 35 35 36 38 39 40

ECMWFFLT1_700_spd_048.txt.gz
Wind_Speed
40 39 37 36 34 30 27 26 24 22 22 26 29 30 29 29 30 31 31 30 30 29 28 27 26 26 26 26 26 25 25 25 24 24 22 20 19 19 19 18 17 17 17 16 15 15 15 15 16 17 17 17 17 17 18 19 18 17 16 14 13 12 12
40 39 38 38 36 33 29 27 25 22 22 24 28 31 31 30 29 30 30 29 29 29 29 28 27 26 26 25 26 26 25 25 25 25 24 22 21 20 20 19 18 17 16 16 16 16 17 17 16 17 18 19 17 17 18 18 18 18 17 15 14 14 14
42 40 40 39 39 35 31 29 25 23 23 23 26 31 32 32 30 28 28 28 29 30 29 29 28 27 25 25 26 26 26 26 25 25 25 23 22 20 20 20 19 17 17 17 17 18 19 19 18 17 18 19 18 17 17 16 16 17 17 16 15 15 15
42 42 40 39 40 38 33 30 25 23 23 22 24 27 29 30 30 29 28 27 28 30 30 29 28 27 26 26 26 27 27 27 26 25 24 23 22 21 20 20 20 18 17 18 19 20 21 21 19 16 16 17 16 15 15 15 14 14 15 15 15 15 16
41 42 41 40 41 40 36 31 25 23 23 22 22 24 25 25 28 30 30 29 29 29 29 29 29 28 28 28 27 27 27 27 27 25 24 23 22 22 21 21 20 19 17 17 19 20 21 21 19 16 15 14 13 12 12 12 11 11 11 12 13 14 16
41 44 44 43 42 41 38 31 26 23 23 24 22 22 24 24 26 29 30 30 30 29 30 31 30 29 28 28 27 27 28 27 27 26 25 24 23 23 21 20 20 19 18 17 18 20 21 20 19 16 14 12 11 10 8 8 8 8 8 9 10 12 14
41 43 42 42 42 42 39 32 27 24 24 25 23 21 25 25 25 27 30 30 30 30 31 32 32 30 29 28 28 28 28 28 27 27 26 26 25 24 22 21 21 20 19 19 19 20 20 20 18 16 14 13 11 9 7 7 7 7 7 7 7 9 12
39 40 38 37 40 41 38 32 29 26 24 27 25 24 27 27 25 27 28 29 29 29 31 31 32 31 30 29 28 28 28 28 27 28 27 27 27 25 24 23 22 21 21 21 20 20 20 19 17 16 15 14 13 11 9 8 7 6 6 6 6 6 7
34 35 35 34 36 38 34 29 27 26 26 29 28 27 28 28 27 27 26 27 28 29 29 29 30 30 29 29 29 28 29 29 29 29 28 28 28 26 25 24 23 23 23 22 21 20 19 18 17 16 15 14 13 13 12 10 9 7 6 5 5 5 5
32 28 32 33 31 32 30 26 25 27 29 30 28 27 29 29 28 27 27 27 28 28 27 27 28 29 29 29 28 29 30 30 30 30 30 30 29 27 26 25 24 24 24 23 23 22 20 18 18 17 16 15 13 13 12 11 11 10 8 7 6 6 5
35 26 28 32 30 29 28 26 26 29 31 30 27 26 29 30 28 27 27 28 28 27 26 26 27 28 28 28 28 29 29 30 31 32 32 31 30 29 27 26 25 25 24 24 24 23 21 20 19 18 17 15 14 13 12 12 12 12 11 9 9 9 8
34 27 26 31 30 28 29 27 27 30 31 28 26 25 26 28 28 27 27 28 27 27 26 25 25 26 27 27 27 27 28 29 31 32 32 32 31 30 29 28 27 26 25 24 24 23 23 22 21 19 18 16 14 14 13 13 14 13 13 12 12 12 12
30 29 28 30 29 28 29 29 27 28 28 27 26 25 24 25 26 27 27 28 27 26 26 25 23 23 24 24 24 25 26 28 29 30 31 31 31 30 29 29 28 27 26 24 24 24 23 22 21 20 19 17 16 15 14 14 15 15 14 14 14 14 14
27 29 32 31 29 29 30 28 26 25 25 26 25 24 23 23 25 28 27 26 26 25 24 23 22 22 22 23 23 22 22 24 26 27 28 29 29 29 30 29 28 27 26 25 25 24 23 23 21 20 19 18 18 17 16 17 17 16 16 15 15 15 15
26 28 34 35 31 30 28 25 24 24 24 25 24 23 22 22 25 29 29 28 26 25 23 22 22 23 23 23 22 19 19 20 22 24 25 27 28 29 29 29 29 28 26 26 26 24 24 23 22 21 20 19 19 19 19 19 19 17 17 16 16 16 16
29 27 34 38 32 26 24 23 23 23 23 24 24 22 20 19 22 27 29 29 27 26 25 24 24 24 24 23 21 18 18 19 20 22 23 24 25 26 28 28 28 28 27 27 26 25 24 24 23 22 21 20 20 20 20 20 19 17 16 16 16 16 16
30 28 34 39 33 25 25 25 23 22 22 23 22 20 19 18 20 24 26 27 27 27 27 27 26 26 25 24 22 21 20 20 20 21 21 22 23 24 25 26 27 28 27 27 26 25 25 24 24 23 21 21 20 20 20 19 17 16 15 15 15 16 16
30 28 32 36 34 29 27 26 24 22 21 20 19 18 18 19 21 23 25 26 27 27 28 28 29 29 28 27 25 24 23 22 21 21 20 21 21 21 23 24 25 26 26 27 26 25 25 24 23 22 21 21 21 20 19 17 15 14 14 13 13 13 13
30 27 29 33 33 31 27 25 25 23 20 19 18 16 17 19 22 23 23 25 26 27 28 29 29 30 30 30 29 27 26 25 24 23 22 21 20 21 22 23 24 24 24 24 24 24 24 24 23 22 22 21 20 19 18 16 14 13 12 12 11 11 11
27 27 30 33 32 30 26 24 24 23 21 20 18 17 18 20 22 21 20 22 24 26 28 28 29 29 29 30 30 29 28 28 28 27 24 22 21 21 22 23 23 23 23 23 23 23 23 23 23 23 22 21 20 18 17 15 14 13 13 12 11 11 12
28 32 35 34 32 30 26 24 24 24 23 21 19 19 20 22 24 23 22 22 24 26 27 27 27 26 25 26 27 28 29 29 30 30 28 26 24 23 23 23 23 23 23 22 22 22 22 22 23 23 22 22 20 19 17 16 14 14 13 13 12 12 14
29 33 36 34 33 31 27 25 25 24 24 22 21 21 22 24 25 26 26 26 26 26 27 26 25 24 22 22 23 25 27 29 31 32 32 30 28 27 25 24 23 23 23 23 23 22 22 23 24 24 23 22 21 20 19 17 15 15 14 14 14 15 17
32 34 34 33 33 31 29 28 28 27 26 24 23 23 25 26 27 28 29 29 28 28 28 27 26 24 23 22 21 22 23 25 28 31 32 33 32 31 29 26 24 24 24 24 24 23 23 23 24 24 23 23 22 21 20 18 17 17 17 17 18 19 21
34 34 33 32 31 31 31 31 29 28 26 23 23 24 24 25 27 28 30 30 29 29 28 28 26 25 24 24 23 21 20 20 22 25 28 31 32 33 33 31 29 26 26 26 25 24 23 23 24 24 24 24 23 23 22 21 20 21 21 21 22 23 24
34 33 31 30 29 29 31 31 28 25 22 20 20 19 19 20 21 24 26 28 28 28 28 28 27 26 25 24 23 21 20 20 20 20 22 25 28 31 33 33 33 31 30 28 28 27 26 25 26 26 26 26 25 25 25 24 24 24 25 25 25 25 26
33 33 32 30 28 27 29 29 25 22 20 19 20 19 18 17 17 18 21 23 25 27 28 27 26 24 23 21 20 18 18 20 21 19 19 19 21 24 26 28 31 33 34 34 32 31 30 29 29 29 29 29 28 28 28 28 28 28 28 28 28 27 28
30 31 30 29 26 24 25 26 23 21 20 19 19 20 19 19 18 18 18 20 22 25 26 26 25 23 20 19 17 16 17 18 20 20 19 17 17 19 21 22 25 28 33 35 36 36 35 33 32 31 31 31 31 31 30 30 30 30 30 30 30 29 29
25 26 25 25 23 22 24 24 23 22 20 19 18 19 20 20 21 20 20 21 22 24 24 24 24 22 21 19 18 16 16 17 18 20 20 19 18 19 20 21 22 24 27 31 36 38 38 36 35 34 33 32 32 32 32 32 32 32 32 32 31 31 32
23 23 22 22 22 24 25 26 25 24 23 22 22 22 23 23 24 25 24 24 24 24 25 25 24 23 21 20 18 18 17 17 17 19 20 20 20 21 22 22 23 24 25 28 32 35 37 37 37 36 35 34 34 34 34 34 34 34 33 33 33 33 34
24 23 22 22 22 23 24 25 25 24 24 24 24 24 26 27 28 29 30 29 27 26 26 25 25 24 23 21 20 19 18 17 17 17 18 19 20 21 23 24 24 24 25 27 29 32 33 35 36 37 36 36 35 35 36 36 36 35 35 35 35 36 36
25 24 24 23 22 21 21 22 22 23 23 24 24 25 27 29 31 32 33 33 31 28 27 26 25 24 23 23 22 22 21 20 19 18 18 19 19 20 22 24 25 26 26 27 28 29 31 32 34 36 37 37 37 37 37 38 38 37 36 36 37 37 37
25 25 26 25 23 21 20 21 22 24 25 25 25 26 27 29 31 32 33 34 33 31 29 28 26 25 25 24 24 24 24 24 23 22 21 20 20 20 20 22 24 27 28 28 28 29 31 32 34 35 36 37 37 38 38 39 38 38 37 37 37 37 38
26 27 27 26 23 20 19 20 21 24 27 28 27 27 28 29 29 30 32 33 34 33 33 31 29 28 27 27 27 26 26 27 26 26 24 24 23 23 22 22 23 25 27 28 30 31 32 34 35 35 35 36 36 37 38 38 37 37 36 36 37 37 37
25 26 26 26 23 21 22 22 23 25 27 28 27 27 28 28 28 29 30 31 32 33 34 34 33 32 30 30 30 29 29 28 28 28 29 28 27 27 26 25 24 25 25 27 31 34 35 36 36 35 35 35 35 36 37 37 37 37 36 36 36 36 36
18 20 21 22 22 22 22 21 21 23 24 25 24 24 25 26 27 28 29 29 30 31 33 34 35 34 33 32 31 31 31 30 30 31 32 32 31 30 30 28 27 26 25 25 27 31 34 36 36 36 36 36 36 37 37 37 37 36 36 35 35 35 34
14 15 17 20 21 20 18 16 16 18 18 18 19 20 22 24 25 27 28 28 28 28 29 31 33 34 34 34 33 33 32 32 32 32 33 34 33 33 33 31 29 28 27 26 26 27 29 32 34 35 35 36 36 37 36 36 35 35 34 33 32 32 32
13 14 17 19 20 19 17 14 14 15 15 15 15 16 18 21 24 26 27 28 28 27 26 27 29 31 33 33 33 32 32 31 31 32 32 33 34 34 34 34 32 30 29 29 28 27 27 27 29 30 32 33 33 34 34 33 33 32 31 30 30 29 29
15 16 17 19 20 19 16 15 15 15 14 14 14 13 15 18 21 23 25 27 28 27 26 26 27 28 30 31 31 30 30 29 29 29 29 30 31 32 34 34 34 32 31 30 29 28 25 24 25 26 27 28 28 28 28 28 27 26 25 25 25 24 24